Wetterdaten: Donnerstag, 28.08.2014
Datum Zeit Temp. Aussen +5cm Feuchte Auss Luftdruck Regen Sonnenschein Regendauer UV Solar Windben
28.08.2014 00:00 13,7 C 11,7 C 92 % 1016,0 hPa 0,0 l/m 0 min 0 min 0,0 UV-I 0 W/m 0,0 km/h (0 Bft)
28.08.2014 00:02 13,7 C 11,7 C 92 % 1016,1 hPa 0,0 l/m 0 min 0 min 0,0 UV-I 0 W/m 0,0 km/h (0 Bft)
28.08.2014 00:05 13,7 C 11,7 C 92 % 1016,1 hPa 0,0 l/m 0 min 0 min 0,0 UV-I 0 W/m 0,0 km/h (0 Bft)
28.08.2014 00:06 13,7 C 11,7 C 92 % 1016,1 hPa 0,0 l/m 0 min 0 min 0,0 UV-I 0 W/m 0,0 km/h (0 Bft)
28.08.2014 00:08 13,7 C 11,7 C 92 % 1016,0 hPa 0,0 l/m 0 min 0 min 0,0 UV-I 0 W/m 0,0 km/h (0 Bft)
28.08.2014 00:10 13,8 C 11,7 C 92 % 1016,0 hPa 0,0 l/m 0 min 0 min 0,0 UV-I 0 W/m 0,0 km/h (0 Bft)
28.08.2014 00:12 13,8 C 11,7 C 92 % 1016,0 hPa 0,0 l/m 0 min 0 min 0,0 UV-I 0 W/m 0,0 km/h (0 Bft)
28.08.2014 00:14 13,8 C 11,7 C 92 % 1016,0 hPa 0,0 l/m 0 min 0 min 0,0 UV-I 0 W/m 0,0 km/h (0 Bft)
28.08.2014 00:16 13,8 C 11,7 C 92 % 1016,1 hPa 0,0 l/m 0 min 0 min 0,0 UV-I 0 W/m 0,0 km/h (0 Bft)
28.08.2014 00:18 13,8 C 11,7 C 92 % 1016,1 hPa 0,0 l/m 0 min 0 min 0,0 UV-I 0 W/m 0,0 km/h (0 Bft)
28.08.2014 00:20 13,8 C 11,7 C 92 % 1016,0 hPa 0,0 l/m 0 min 0 min 0,0 UV-I 0 W/m 0,0 km/h (0 Bft)
28.08.2014 00:22 13,8 C 11,7 C 92 % 1016,1 hPa 0,0 l/m 0 min 0 min 0,0 UV-I 0 W/m 0,0 km/h (0 Bft)
28.08.2014 00:24 13,8 C 11,7 C 91 % 1016,1 hPa 0,0 l/m 0 min 0 min 0,0 UV-I 0 W/m 0,0 km/h (0 Bft)
28.08.2014 00:26 13,9 C 11,7 C 91 % 1016,0 hPa 0,0 l/m 0 min 0 min 0,0 UV-I 0 W/m 0,0 km/h (0 Bft)
28.08.2014 00:28 13,9 C 11,7 C 91 % 1016,0 hPa 0,0 l/m 0 min 0 min 0,0 UV-I 0 W/m 0,0 km/h (0 Bft)
28.08.2014 00:30 13,8 C 11,7 C 91 % 1016,0 hPa 0,0 l/m 0 min 0 min 0,0 UV-I 0 W/m 0,0 km/h (0 Bft)
28.08.2014 00:32 13,8 C 11,7 C 91 % 1016,0 hPa 0,0 l/m 0 min 0 min 0,0 UV-I 0 W/m 0,0 km/h (0 Bft)
28.08.2014 00:34 13,8 C 11,7 C 91 % 1016,0 hPa 0,0 l/m 0 min 0 min 0,0 UV-I 0 W/m 0,0 km/h (0 Bft)
28.08.2014 00:36 13,8 C 11,7 C 91 % 1015,9 hPa 0,0 l/m 0 min 0 min 0,0 UV-I 0 W/m 0,0 km/h (0 Bft)
28.08.2014 00:38 13,8 C 11,7 C 91 % 1016,0 hPa 0,0 l/m 0 min 0 min 0,0 UV-I 0 W/m 0,0 km/h (0 Bft)
28.08.2014 00:40 13,8 C 11,7 C 91 % 1015,9 hPa 0,0 l/m 0 min 0 min 0,0 UV-I 0 W/m 0,0 km/h (0 Bft)
28.08.2014 00:42 13,7 C 11,7 C 91 % 1015,9 hPa 0,0 l/m 0 min 0 min 0,0 UV-I 0 W/m 0,0 km/h (0 Bft)
28.08.2014 00:44 13,7 C 11,7 C 91 % 1015,9 hPa 0,0 l/m 0 min 0 min 0,0 UV-I 0 W/m 0,0 km/h (0 Bft)
28.08.2014 00:46 13,6 C 11,7 C 91 % 1015,8 hPa 0,0 l/m 0 min 0 min 0,0 UV-I 0 W/m 0,0 km/h (0 Bft)
28.08.2014 00:48 13,6 C 11,7 C 91 % 1015,8 hPa 0,0 l/m 0 min 0 min 0,0 UV-I 0 W/m 0,0 km/h (0 Bft)
28.08.2014 00:50 13,6 C 11,7 C 91 % 1015,9 hPa 0,0 l/m 0 min 0 min 0,0 UV-I 0 W/m 0,0 km/h (0 Bft)
28.08.2014 00:52 13,6 C 11,7 C 91 % 1015,8 hPa 0,0 l/m 0 min 0 min 0,0 UV-I 0 W/m 0,0 km/h (0 Bft)
28.08.2014 00:54 13,6 C 11,7 C 91 % 1015,8 hPa 0,0 l/m 0 min 0 min 0,0 UV-I 0 W/m 0,0 km/h (0 Bft)
28.08.2014 00:56 13,6 C 11,7 C 91 % 1015,8 hPa 0,0 l/m 0 min 0 min 0,0 UV-I 0 W/m 0,0 km/h (0 Bft)
28.08.2014 00:58 13,5 C 11,7 C 91 % 1015,8 hPa 0,0 l/m 0 min 0 min 0,0 UV-I 0 W/m 0,0 km/h (0 Bft)
28.08.2014 01:00 13,5 C 11,7 C 91 % 1015,8 hPa 0,0 l/m 0 min 0 min 0,0 UV-I 0 W/m 0,0 km/h (0 Bft)
28.08.2014 01:02 13,5 C 11,7 C 91 % 1015,8 hPa 0,0 l/m 0 min 0 min 0,0 UV-I 0 W/m 0,0 km/h (0 Bft)
28.08.2014 01:04 13,4 C 11,7 C 92 % 1015,9 hPa 0,0 l/m 0 min 0 min 0,0 UV-I 0 W/m 0,0 km/h (0 Bft)
28.08.2014 01:06 13,4 C 11,7 C 92 % 1015,9 hPa 0,0 l/m 0 min 0 min 0,0 UV-I 0 W/m 0,0 km/h (0 Bft)
28.08.2014 01:08 13,4 C 11,7 C 92 % 1015,9 hPa 0,0 l/m 0 min 0 min 0,0 UV-I 0 W/m 0,0 km/h (0 Bft)
28.08.2014 01:10 13,4 C 11,7 C 92 % 1015,9 hPa 0,0 l/m 0 min 0 min 0,0 UV-I 0 W/m 0,0 km/h (0 Bft)
28.08.2014 01:12 13,4 C 11,7 C 92 % 1015,9 hPa 0,0 l/m 0 min 0 min 0,0 UV-I 0 W/m 0,0 km/h (0 Bft)
28.08.2014 01:14 13,4 C 11,7 C 92 % 1015,9 hPa 0,0 l/m 0 min 0 min 0,0 UV-I 0 W/m 0,0 km/h (0 Bft)
28.08.2014 01:16 13,3 C 11,1 C 92 % 1015,9 hPa 0,0 l/m 0 min 0 min 0,0 UV-I 0 W/m 0,0 km/h (0 Bft)
28.08.2014 01:18 13,3 C 11,1 C 92 % 1015,9 hPa 0,0 l/m 0 min 0 min 0,0 UV-I 0 W/m 7,1 km/h (2 Bft)
28.08.2014 01:20 13,3 C 11,1 C 92 % 1015,9 hPa 0,0 l/m 0 min 0 min 0,0 UV-I 0 W/m 3,5 km/h (1 Bft)
28.08.2014 01:22 13,3 C 11,1 C 92 % 1015,9 hPa 0,0 l/m 0 min 0 min 0,0 UV-I 0 W/m 0,0 km/h (0 Bft)
28.08.2014 01:24 13,3 C 11,1 C 93 % 1015,9 hPa 0,0 l/m 0 min 0 min 0,0 UV-I 0 W/m 0,0 km/h (0 Bft)
28.08.2014 01:26 13,3 C 11,1 C 93 % 1015,9 hPa 0,0 l/m 0 min 0 min 0,0 UV-I 0 W/m 0,0 km/h (0 Bft)
28.08.2014 01:28 13,3 C 11,1 C 93 % 1015,9 hPa 0,0 l/m 0 min 0 min 0,0 UV-I 0 W/m 0,0 km/h (0 Bft)
28.08.2014 01:30 13,3 C 11,7 C 93 % 1015,9 hPa 0,0 l/m 0 min 0 min 0,0 UV-I 0 W/m 3,5 km/h (1 Bft)
28.08.2014 01:32 13,3 C 11,7 C 93 % 1015,8 hPa 0,0 l/m 0 min 0 min 0,0 UV-I 0 W/m 0,0 km/h (0 Bft)
28.08.2014 01:34 13,3 C 11,7 C 93 % 1015,8 hPa 0,0 l/m 0 min 0 min 0,0 UV-I 0 W/m 0,0 km/h (0 Bft)
28.08.2014 01:36 13,3 C 11,7 C 93 % 1015,8 hPa 0,0 l/m 0 min 0 min 0,0 UV-I 0 W/m 7,1 km/h (2 Bft)
28.08.2014 01:38 13,3 C 11,7 C 93 % 1015,8 hPa 0,0 l/m 0 min 0 min 0,0 UV-I 0 W/m 7,1 km/h (2 Bft)
28.08.2014 01:40 13,3 C 11,7 C 93 % 1015,8 hPa 0,0 l/m 0 min 0 min 0,0 UV-I 0 W/m 10,7 km/h (2 Bft)
28.08.2014 01:42 13,3 C 11,7 C 93 % 1015,8 hPa 0,0 l/m 0 min 0 min 0,0 UV-I 0 W/m 3,5 km/h (1 Bft)
28.08.2014 01:44 13,3 C 11,7 C 93 % 1015,8 hPa 0,0 l/m 0 min 0 min 0,0 UV-I 0 W/m 0,0 km/h (0 Bft)
28.08.2014 01:46 13,3 C 11,7 C 93 % 1015,8 hPa 0,0 l/m 0 min 0 min 0,0 UV-I 0 W/m 0,0 km/h (0 Bft)
28.08.2014 01:48 13,3 C 11,7 C 93 % 1015,8 hPa 0,0 l/m 0 min 0 min 0,0 UV-I 0 W/m 3,5 km/h (1 Bft)
28.08.2014 01:50 13,3 C 11,7 C 93 % 1015,8 hPa 0,0 l/m 0 min 0 min 0,0 UV-I 0 W/m 0,0 km/h (0 Bft)
28.08.2014 01:52 13,3 C 11,7 C 93 % 1015,7 hPa 0,0 l/m 0 min 0 min 0,0 UV-I 0 W/m 0,0 km/h (0 Bft)
28.08.2014 01:54 13,3 C 11,7 C 93 % 1015,8 hPa 0,0 l/m 0 min 0 min 0,0 UV-I 0 W/m 0,0 km/h (0 Bft)
28.08.2014 01:56 13,2 C 11,7 C 93 % 1015,7 hPa 0,0 l/m 0 min 0 min 0,0 UV-I 0 W/m 0,0 km/h (0 Bft)
28.08.2014 01:58 13,2 C 11,7 C 93 % 1015,7 hPa 0,0 l/m 0 min 0 min 0,0 UV-I 0 W/m 0,0 km/h (0 Bft)
28.08.2014 02:00 13,2 C 11,7 C 93 % 1015,7 hPa 0,0 l/m 0 min 0 min 0,0 UV-I 0 W/m 3,5 km/h (1 Bft)
28.08.2014 02:02 13,2 C 11,7 C 94 % 1015,7 hPa 0,0 l/m 0 min 0 min 0,0 UV-I 0 W/m 0,0 km/h (0 Bft)
28.08.2014 02:04 13,2 C 11,7 C 94 % 1015,7 hPa 0,0 l/m 0 min 0 min 0,0 UV-I 0 W/m 7,1 km/h (2 Bft)
28.08.2014 02:06 13,2 C 11,7 C 94 % 1015,7 hPa 0,0 l/m 0 min 0 min 0,0 UV-I 0 W/m 3,5 km/h (1 Bft)
28.08.2014 02:08 13,2 C 11,7 C 94 % 1015,7 hPa 0,0 l/m 0 min 0 min 0,0 UV-I 0 W/m 14,2 km/h (3 Bft)
28.08.2014 02:10 13,3 C 11,7 C 94 % 1015,7 hPa 0,0 l/m 0 min 0 min 0,0 UV-I 0 W/m 10,7 km/h (2 Bft)
28.08.2014 02:12 13,3 C 11,7 C 94 % 1015,7 hPa 0,0 l/m 0 min 0 min 0,0 UV-I 0 W/m 10,7 km/h (2 Bft)
28.08.2014 02:14 13,3 C 11,7 C 94 % 1015,6 hPa 0,0 l/m 0 min 0 min 0,0 UV-I 0 W/m 7,1 km/h (2 Bft)
28.08.2014 02:16 13,3 C 11,7 C 94 % 1015,6 hPa 0,0 l/m 0 min 0 min 0,0 UV-I 0 W/m 7,1 km/h (2 Bft)
28.08.2014 02:18 13,3 C 11,7 C 94 % 1015,6 hPa 0,0 l/m 0 min 0 min 0,0 UV-I 0 W/m 10,7 km/h (2 Bft)
28.08.2014 02:20 13,3 C 11,7 C 94 % 1015,6 hPa 0,0 l/m 0 min 0 min 0,0 UV-I 0 W/m 14,2 km/h (3 Bft)
28.08.2014 02:22 13,3 C 11,7 C 94 % 1015,6 hPa 0,0 l/m 0 min 0 min 0,0 UV-I 0 W/m 14,2 km/h (3 Bft)
28.08.2014 02:24 13,3 C 11,7 C 94 % 1015,6 hPa 0,0 l/m 0 min 0 min 0,0 UV-I 0 W/m 7,1 km/h (2 Bft)
28.08.2014 02:26 13,3 C 11,7 C 94 % 1015,5 hPa 0,0 l/m 0 min 0 min 0,0 UV-I 0 W/m 10,7 km/h (2 Bft)
28.08.2014 02:28 13,3 C 11,7 C 94 % 1015,6 hPa 0,0 l/m 0 min 0 min 0,0 UV-I 0 W/m 10,7 km/h (2 Bft)
28.08.2014 02:30 13,3 C 11,7 C 94 % 1015,6 hPa 0,0 l/m 0 min 0 min 0,0 UV-I 0 W/m 7,1 km/h (2 Bft)
28.08.2014 02:32 13,3 C 11,7 C 94 % 1015,6 hPa 0,0 l/m 0 min 0 min 0,0 UV-I 0 W/m 0,0 km/h (0 Bft)
28.08.2014 02:34 13,2 C 11,7 C 94 % 1015,6 hPa 0,0 l/m 0 min 0 min 0,0 UV-I 0 W/m 7,1 km/h (2 Bft)
28.08.2014 02:36 13,2 C 11,7 C 94 % 1015,6 hPa 0,0 l/m 0 min 0 min 0,0 UV-I 0 W/m 0,0 km/h (0 Bft)
28.08.2014 02:38 13,2 C 11,7 C 94 % 1015,6 hPa 0,0 l/m 0 min 0 min 0,0 UV-I 0 W/m 10,7 km/h (2 Bft)
28.08.2014 02:40 13,2 C 11,7 C 94 % 1015,5 hPa 0,0 l/m 0 min 0 min 0,0 UV-I 0 W/m 14,2 km/h (3 Bft)
28.08.2014 02:42 13,2 C 11,7 C 94 % 1015,5 hPa 0,0 l/m 0 min 0 min 0,0 UV-I 0 W/m 10,7 km/h (2 Bft)
28.08.2014 02:44 13,2 C 11,7 C 94 % 1015,6 hPa 0,0 l/m 0 min 0 min 0,0 UV-I 0 W/m 3,5 km/h (1 Bft)
28.08.2014 02:46 13,2 C 11,7 C 94 % 1015,5 hPa 0,0 l/m 0 min 0 min 0,0 UV-I 0 W/m 14,2 km/h (3 Bft)
28.08.2014 02:48 13,2 C 11,7 C 94 % 1015,6 hPa 0,0 l/m 0 min 0 min 0,0 UV-I 0 W/m 3,5 km/h (1 Bft)
28.08.2014 02:50 13,2 C 11,7 C 94 % 1015,6 hPa 0,0 l/m 0 min 0 min 0,0 UV-I 0 W/m 7,1 km/h (2 Bft)
28.08.2014 02:52 13,2 C 11,7 C 94 % 1015,5 hPa 0,0 l/m 0 min 0 min 0,0 UV-I 0 W/m 10,7 km/h (2 Bft)
28.08.2014 02:54 13,2 C 11,7 C 94 % 1015,5 hPa 0,0 l/m 0 min 0 min 0,0 UV-I 0 W/m 17,7 km/h (3 Bft)
28.08.2014 02:56 13,2 C 11,7 C 94 % 1015,5 hPa 0,0 l/m 0 min 0 min 0,0 UV-I 0 W/m 17,7 km/h (3 Bft)
28.08.2014 02:58 13,1 C 11,7 C 94 % 1015,6 hPa 0,0 l/m 0 min 0 min 0,0 UV-I 0 W/m 0,0 km/h (0 Bft)
28.08.2014 03:00 13,1 C 11,7 C 94 % 1015,5 hPa 0,0 l/m 0 min 0 min 0,0 UV-I 0 W/m 14,2 km/h (3 Bft)
28.08.2014 03:02 13,1 C 11,7 C 94 % 1015,6 hPa 0,0 l/m 0 min 0 min 0,0 UV-I 0 W/m 7,1 km/h (2 Bft)
28.08.2014 03:04 13,1 C 11,7 C 94 % 1015,5 hPa 0,0 l/m 0 min 0 min 0,0 UV-I 0 W/m 10,7 km/h (2 Bft)
28.08.2014 03:06 13,0 C 11,7 C 94 % 1015,6 hPa 0,0 l/m 0 min 0 min 0,0 UV-I 0 W/m 14,2 km/h (3 Bft)
28.08.2014 03:08 13,0 C 11,7 C 94 % 1015,5 hPa 0,0 l/m 0 min 0 min 0,0 UV-I 0 W/m 14,2 km/h (3 Bft)
28.08.2014 03:10 12,9 C 11,7 C 94 % 1015,5 hPa 0,0 l/m 0 min 0 min 0,0 UV-I 0 W/m 10,7 km/h (2 Bft)
28.08.2014 03:12 12,9 C 11,7 C 94 % 1015,5 hPa 0,0 l/m 0 min 0 min 0,0 UV-I 0 W/m 0,0 km/h (0 Bft)
28.08.2014 03:14 12,9 C 11,7 C 94 % 1015,5 hPa 0,0 l/m 0 min 0 min 0,0 UV-I 0 W/m 0,0 km/h (0 Bft)
28.08.2014 03:16 12,9 C 11,7 C 94 % 1015,5 hPa 0,0 l/m 0 min 0 min 0,0 UV-I 0 W/m 3,5 km/h (1 Bft)
28.08.2014 03:18 12,9 C 11,7 C 94 % 1015,5 hPa 0,0 l/m 0 min 0 min 0,0 UV-I 0 W/m 0,0 km/h (0 Bft)
28.08.2014 03:20 12,8 C 11,7 C 94 % 1015,5 hPa 0,0 l/m 0 min 0 min 0,0 UV-I 0 W/m 3,5 km/h (1 Bft)
28.08.2014 03:22 12,8 C 11,7 C 94 % 1015,5 hPa 0,0 l/m 0 min 0 min 0,0 UV-I 0 W/m 3,5 km/h (1 Bft)
28.08.2014 03:24 12,9 C 11,7 C 94 % 1015,4 hPa 0,0 l/m 0 min 0 min 0,0 UV-I 0 W/m 10,7 km/h (2 Bft)
28.08.2014 03:26 12,9 C 11,7 C 94 % 1015,5 hPa 0,0 l/m 0 min 0 min 0,0 UV-I 0 W/m 10,7 km/h (2 Bft)
28.08.2014 03:28 12,9 C 11,7 C 94 % 1015,5 hPa 0,0 l/m 0 min 0 min 0,0 UV-I 0 W/m 14,2 km/h (3 Bft)
28.08.2014 03:30 12,9 C 11,7 C 94 % 1015,5 hPa 0,0 l/m 0 min 0 min 0,0 UV-I 0 W/m 14,2 km/h (3 Bft)
28.08.2014 03:32 12,9 C 11,7 C 94 % 1015,5 hPa 0,0 l/m 0 min 0 min 0,0 UV-I 0 W/m 17,7 km/h (3 Bft)
28.08.2014 03:34 12,9 C 11,7 C 94 % 1015,5 hPa 0,0 l/m 0 min 0 min 0,0 UV-I 0 W/m 17,7 km/h (3 Bft)
28.08.2014 03:36 12,9 C 11,7 C 94 % 1015,4 hPa 0,0 l/m 0 min 0 min 0,0 UV-I 0 W/m 14,2 km/h (3 Bft)
28.08.2014 03:38 12,9 C 11,7 C 94 % 1015,4 hPa 0,0 l/m 0 min 0 min 0,0 UV-I 0 W/m 14,2 km/h (3 Bft)
28.08.2014 03:40 12,9 C 11,7 C 94 % 1015,4 hPa 0,0 l/m 0 min 0 min 0,0 UV-I 0 W/m 14,2 km/h (3 Bft)
28.08.2014 03:42 12,9 C 11,7 C 94 % 1015,4 hPa 0,0 l/m 0 min 0 min 0,0 UV-I 0 W/m 14,2 km/h (3 Bft)
28.08.2014 03:44 12,9 C 11,7 C 94 % 1015,4 hPa 0,0 l/m 0 min 0 min 0,0 UV-I 0 W/m 14,2 km/h (3 Bft)
28.08.2014 03:46 12,9 C 11,7 C 94 % 1015,4 hPa 0,0 l/m 0 min 0 min 0,0 UV-I 0 W/m 10,7 km/h (2 Bft)
28.08.2014 03:48 12,9 C 11,7 C 94 % 1015,4 hPa 0,0 l/m 0 min 0 min 0,0 UV-I 0 W/m 17,7 km/h (3 Bft)
28.08.2014 03:50 12,9 C 11,7 C 94 % 1015,4 hPa 0,0 l/m 0 min 0 min 0,0 UV-I 0 W/m 17,7 km/h (3 Bft)
28.08.2014 03:52 12,9 C 11,7 C 94 % 1015,4 hPa 0,0 l/m 0 min 0 min 0,0 UV-I 0 W/m 17,7 km/h (3 Bft)
28.08.2014 03:54 12,9 C 11,7 C 94 % 1015,4 hPa 0,0 l/m 0 min 0 min 0,0 UV-I 0 W/m 17,7 km/h (3 Bft)
28.08.2014 03:56 12,9 C 11,7 C 94 % 1015,4 hPa 0,0 l/m 0 min 0 min 0,0 UV-I 0 W/m 14,2 km/h (3 Bft)
28.08.2014 03:58 12,9 C 11,7 C 94 % 1015,5 hPa 0,0 l/m 0 min 0 min 0,0 UV-I 0 W/m 14,2 km/h (3 Bft)
28.08.2014 04:00 12,9 C 11,7 C 94 % 1015,5 hPa 0,0 l/m 0 min 0 min 0,0 UV-I 0 W/m 17,7 km/h (3 Bft)
28.08.2014 04:02 12,9 C 11,7 C 94 % 1015,5 hPa 0,0 l/m 0 min 0 min 0,0 UV-I 0 W/m 10,7 km/h (2 Bft)
28.08.2014 04:04 12,9 C 11,7 C 94 % 1015,5 hPa 0,0 l/m 0 min 0 min 0,0 UV-I 0 W/m 14,2 km/h (3 Bft)
28.08.2014 04:06 13,0 C 11,7 C 95 % 1015,5 hPa 0,0 l/m 0 min 0 min 0,0 UV-I 0 W/m 10,7 km/h (2 Bft)
28.08.2014 04:08 13,0 C 11,7 C 95 % 1015,5 hPa 0,0 l/m 0 min 0 min 0,0 UV-I 0 W/m 21,3 km/h (4 Bft)
28.08.2014 04:10 13,1 C 12,2 C 95 % 1015,4 hPa 0,0 l/m 0 min 0 min 0,0 UV-I 0 W/m 10,7 km/h (2 Bft)
28.08.2014 04:12 13,1 C 12,2 C 95 % 1015,4 hPa 0,0 l/m 0 min 0 min 0,0 UV-I 0 W/m 10,7 km/h (2 Bft)
28.08.2014 04:14 13,1 C 12,2 C 95 % 1015,4 hPa 0,0 l/m 0 min 0 min 0,0 UV-I 0 W/m 7,1 km/h (2 Bft)
28.08.2014 04:16 13,1 C 12,2 C 94 % 1015,4 hPa 0,0 l/m 0 min 0 min 0,0 UV-I 0 W/m 17,7 km/h (3 Bft)
28.08.2014 04:18 13,1 C 12,2 C 94 % 1015,4 hPa 0,0 l/m 0 min 0 min 0,0 UV-I 0 W/m 10,7 km/h (2 Bft)
28.08.2014 04:20 13,2 C 12,2 C 94 % 1015,4 hPa 0,0 l/m 0 min 0 min 0,0 UV-I 0 W/m 10,7 km/h (2 Bft)
28.08.2014 04:22 13,2 C 12,2 C 94 % 1015,5 hPa 0,0 l/m 0 min 0 min 0,0 UV-I 0 W/m 21,3 km/h (4 Bft)
28.08.2014 04:24 13,2 C 12,2 C 94 % 1015,5 hPa 0,0 l/m 0 min 0 min 0,0 UV-I 0 W/m 17,7 km/h (3 Bft)
28.08.2014 04:26 13,2 C 12,2 C 94 % 1015,5 hPa 0,0 l/m 0 min 0 min 0,0 UV-I 0 W/m 14,2 km/h (3 Bft)
28.08.2014 04:28 13,2 C 12,2 C 94 % 1015,5 hPa 0,0 l/m 0 min 0 min 0,0 UV-I 0 W/m 17,7 km/h (3 Bft)
28.08.2014 04:30 13,2 C 12,2 C 94 % 1015,5 hPa 0,0 l/m 0 min 0 min 0,0 UV-I 0 W/m 14,2 km/h (3 Bft)
28.08.2014 04:32 13,2 C 12,2 C 94 % 1015,5 hPa 0,0 l/m 0 min 0 min 0,0 UV-I 0 W/m 17,7 km/h (3 Bft)
28.08.2014 04:34 13,2 C 12,2 C 94 % 1015,4 hPa 0,0 l/m 0 min 0 min 0,0 UV-I 0 W/m 10,7 km/h (2 Bft)
28.08.2014 04:36 13,2 C 12,2 C 94 % 1015,4 hPa 0,0 l/m 0 min 0 min 0,0 UV-I 0 W/m 14,2 km/h (3 Bft)
28.08.2014 04:38 13,1 C 12,2 C 94 % 1015,4 hPa 0,0 l/m 0 min 0 min 0,0 UV-I 0 W/m 21,3 km/h (4 Bft)
28.08.2014 04:40 13,1 C 11,7 C 94 % 1015,4 hPa 0,0 l/m 0 min 0 min 0,0 UV-I 0 W/m 17,7 km/h (3 Bft)
28.08.2014 04:42 13,1 C 11,7 C 94 % 1015,4 hPa 0,0 l/m 0 min 0 min 0,0 UV-I 0 W/m 17,7 km/h (3 Bft)
28.08.2014 04:44 13,1 C 11,7 C 94 % 1015,4 hPa 0,0 l/m 0 min 0 min 0,0 UV-I 0 W/m 21,3 km/h (4 Bft)
28.08.2014 04:46 13,1 C 11,7 C 94 % 1015,3 hPa 0,0 l/m 0 min 0 min 0,0 UV-I 0 W/m 17,7 km/h (3 Bft)
28.08.2014 04:48 13,0 C 11,7 C 94 % 1015,3 hPa 0,0 l/m 0 min 0 min 0,0 UV-I 0 W/m 14,2 km/h (3 Bft)
28.08.2014 04:50 13,0 C 11,7 C 94 % 1015,4 hPa 0,0 l/m 0 min 0 min 0,0 UV-I 0 W/m 17,7 km/h (3 Bft)
28.08.2014 04:52 12,9 C 11,7 C 94 % 1015,5 hPa 0,0 l/m 0 min 0 min 0,0 UV-I 0 W/m 10,7 km/h (2 Bft)
28.08.2014 04:54 12,9 C 11,7 C 94 % 1015,4 hPa 0,0 l/m 0 min 0 min 0,0 UV-I 0 W/m 14,2 km/h (3 Bft)
28.08.2014 04:56 12,9 C 11,7 C 94 % 1015,4 hPa 0,0 l/m 0 min 0 min 0,0 UV-I 0 W/m 17,7 km/h (3 Bft)
28.08.2014 04:58 12,8 C 11,7 C 94 % 1015,5 hPa 0,0 l/m 0 min 0 min 0,0 UV-I 0 W/m 3,5 km/h (1 Bft)
28.08.2014 05:00 12,8 C 11,7 C 94 % 1015,4 hPa 0,0 l/m 0 min 0 min 0,0 UV-I 0 W/m 7,1 km/h (2 Bft)
28.08.2014 05:02 12,8 C 11,7 C 94 % 1015,4 hPa 0,0 l/m 0 min 0 min 0,0 UV-I 0 W/m 7,1 km/h (2 Bft)
28.08.2014 05:04 12,8 C 11,7 C 94 % 1015,4 hPa 0,0 l/m 0 min 0 min 0,0 UV-I 0 W/m 17,7 km/h (3 Bft)
28.08.2014 05:06 12,7 C 11,7 C 94 % 1015,4 hPa 0,0 l/m 0 min 0 min 0,0 UV-I 0 W/m 17,7 km/h (3 Bft)
28.08.2014 05:08 12,7 C 11,7 C 94 % 1015,4 hPa 0,0 l/m 0 min 0 min 0,0 UV-I 0 W/m 0,0 km/h (0 Bft)
28.08.2014 05:10 12,7 C 11,7 C 94 % 1015,4 hPa 0,0 l/m 0 min 0 min 0,0 UV-I 0 W/m 14,2 km/h (3 Bft)
28.08.2014 05:12 12,6 C 11,7 C 94 % 1015,4 hPa 0,0 l/m 0 min 0 min 0,0 UV-I 0 W/m 17,7 km/h (3 Bft)
28.08.2014 05:14 12,6 C 11,7 C 95 % 1015,4 hPa 0,0 l/m 0 min 0 min 0,0 UV-I 0 W/m 14,2 km/h (3 Bft)
28.08.2014 05:16 12,6 C 11,7 C 95 % 1015,3 hPa 0,0 l/m 0 min 0 min 0,0 UV-I 0 W/m 14,2 km/h (3 Bft)
28.08.2014 05:18 12,6 C 11,1 C 95 % 1015,3 hPa 0,0 l/m 0 min 0 min 0,0 UV-I 0 W/m 14,2 km/h (3 Bft)
28.08.2014 05:20 12,5 C 11,1 C 95 % 1015,4 hPa 0,0 l/m 0 min 0 min 0,0 UV-I 0 W/m 21,3 km/h (4 Bft)
28.08.2014 05:22 12,5 C 11,1 C 95 % 1015,3 hPa 0,0 l/m 0 min 0 min 0,0 UV-I 0 W/m 3,5 km/h (1 Bft)
28.08.2014 05:24 12,5 C 11,1 C 95 % 1015,3 hPa 0,0 l/m 0 min 0 min 0,0 UV-I 0 W/m 17,7 km/h (3 Bft)
28.08.2014 05:26 12,4 C 11,1 C 95 % 1015,3 hPa 0,0 l/m 0 min 0 min 0,0 UV-I 0 W/m 14,2 km/h (3 Bft)
28.08.2014 05:28 12,4 C 11,1 C 95 % 1015,3 hPa 0,0 l/m 0 min 0 min 0,0 UV-I 0 W/m 7,1 km/h (2 Bft)
28.08.2014 05:30 12,4 C 11,1 C 95 % 1015,3 hPa 0,0 l/m 0 min 0 min 0,0 UV-I 0 W/m 10,7 km/h (2 Bft)
28.08.2014 05:32 12,4 C 11,1 C 95 % 1015,3 hPa 0,0 l/m 0 min 0 min 0,0 UV-I 0 W/m 0,0 km/h (0 Bft)
28.08.2014 05:34 12,3 C 11,1 C 95 % 1015,3 hPa 0,0 l/m 0 min 0 min 0,0 UV-I 0 W/m 0,0 km/h (0 Bft)
28.08.2014 05:36 12,3 C 11,1 C 95 % 1015,3 hPa 0,0 l/m 0 min 0 min 0,0 UV-I 0 W/m 17,7 km/h (3 Bft)
28.08.2014 05:38 12,3 C 11,1 C 95 % 1015,3 hPa 0,0 l/m 0 min 0 min 0,0 UV-I 0 W/m 7,1 km/h (2 Bft)
28.08.2014 05:40 12,3 C 11,1 C 95 % 1015,3 hPa 0,0 l/m 0 min 0 min 0,0 UV-I 0 W/m 17,7 km/h (3 Bft)
28.08.2014 05:42 12,2 C 11,1 C 95 % 1015,3 hPa 0,0 l/m 0 min 0 min 0,0 UV-I 0 W/m 7,1 km/h (2 Bft)
28.08.2014 05:44 12,2 C 11,1 C 95 % 1015,3 hPa 0,0 l/m 0 min 0 min 0,0 UV-I 0 W/m 10,7 km/h (2 Bft)
28.08.2014 05:46 12,2 C 11,1 C 95 % 1015,2 hPa 0,0 l/m 0 min 0 min 0,0 UV-I 0 W/m 10,7 km/h (2 Bft)
28.08.2014 05:48 12,2 C 11,1 C 95 % 1015,3 hPa 0,0 l/m 0 min 0 min 0,0 UV-I 0 W/m 10,7 km/h (2 Bft)
28.08.2014 05:50 12,2 C 11,1 C 95 % 1015,3 hPa 0,0 l/m 0 min 0 min 0,0 UV-I 0 W/m 14,2 km/h (3 Bft)
28.08.2014 05:52 12,2 C 11,1 C 95 % 1015,3 hPa 0,0 l/m 0 min 0 min 0,0 UV-I 0 W/m 0,0 km/h (0 Bft)
28.08.2014 05:54 12,2 C 11,1 C 95 % 1015,3 hPa 0,0 l/m 0 min 0 min 0,0 UV-I 0 W/m 14,2 km/h (3 Bft)
28.08.2014 05:56 12,2 C 11,1 C 95 % 1015,2 hPa 0,0 l/m 0 min 0 min 0,0 UV-I 0 W/m 14,2 km/h (3 Bft)
28.08.2014 05:58 12,2 C 11,1 C 95 % 1015,2 hPa 0,0 l/m 0 min 0 min 0,0 UV-I 0 W/m 3,5 km/h (1 Bft)
28.08.2014 06:00 12,2 C 11,1 C 95 % 1015,3 hPa 0,0 l/m 0 min 0 min 0,0 UV-I 0 W/m 0,0 km/h (0 Bft)
28.08.2014 06:02 12,2 C 11,1 C 95 % 1015,3 hPa 0,0 l/m 0 min 0 min 0,0 UV-I 0 W/m 7,1 km/h (2 Bft)
28.08.2014 06:06 12,1 C 11,1 C 95 % 1015,3 hPa 0,0 l/m 0 min 0 min 0,0 UV-I 0 W/m 3,5 km/h (1 Bft)
28.08.2014 06:08 12,1 C 11,1 C 96 % 1015,3 hPa 0,0 l/m 0 min 0 min 0,0 UV-I 0 W/m 3,5 km/h (1 Bft)
28.08.2014 06:10 12,1 C 10,6 C 96 % 1015,4 hPa 0,0 l/m 0 min 0 min 0,0 UV-I 0 W/m 0,0 km/h (0 Bft)
28.08.2014 06:12 12,1 C 10,6 C 96 % 1015,4 hPa 0,0 l/m 0 min 0 min 0,0 UV-I 0 W/m 3,5 km/h (1 Bft)
28.08.2014 06:14 12,1 C 10,6 C 96 % 1015,4 hPa 0,0 l/m 0 min 0 min 0,0 UV-I 0 W/m 0,0 km/h (0 Bft)
28.08.2014 06:16 12,0 C 10,6 C 96 % 1015,4 hPa 0,0 l/m 0 min 0 min 0,0 UV-I 0 W/m 0,0 km/h (0 Bft)
28.08.2014 06:18 12,0 C 10,6 C 96 % 1015,4 hPa 0,0 l/m 0 min 0 min 0,0 UV-I 0 W/m 3,5 km/h (1 Bft)
28.08.2014 06:20 12,0 C 10,6 C 96 % 1015,3 hPa 0,0 l/m 0 min 0 min 0,0 UV-I 0 W/m 10,7 km/h (2 Bft)
28.08.2014 06:22 12,0 C 10,6 C 96 % 1015,4 hPa 0,0 l/m 0 min 0 min 0,0 UV-I 0 W/m 7,1 km/h (2 Bft)
28.08.2014 06:24 11,9 C 10,6 C 96 % 1015,3 hPa 0,0 l/m 0 min 0 min 0,0 UV-I 0 W/m 14,2 km/h (3 Bft)
28.08.2014 06:26 11,9 C 10,6 C 96 % 1015,3 hPa 0,0 l/m 0 min 0 min 0,0 UV-I 0 W/m 7,1 km/h (2 Bft)
28.08.2014 06:28 11,9 C 10,6 C 96 % 1015,4 hPa 0,0 l/m 0 min 0 min 0,0 UV-I 0 W/m 10,7 km/h (2 Bft)
28.08.2014 06:30 11,9 C 10,6 C 96 % 1015,4 hPa 0,0 l/m 0 min 0 min 0,0 UV-I 0 W/m 10,7 km/h (2 Bft)
28.08.2014 06:32 11,9 C 10,6 C 96 % 1015,3 hPa 0,0 l/m 0 min 0 min 0,0 UV-I 0 W/m 10,7 km/h (2 Bft)
28.08.2014 06:34 11,9 C 10,6 C 96 % 1015,3 hPa 0,0 l/m 0 min 0 min 0,0 UV-I 0 W/m 14,2 km/h (3 Bft)
28.08.2014 06:36 11,9 C 10,6 C 96 % 1015,3 hPa 0,0 l/m 0 min 0 min 0,0 UV-I 0 W/m 14,2 km/h (3 Bft)
28.08.2014 06:38 11,9 C 10,6 C 96 % 1015,3 hPa 0,0 l/m 0 min 0 min 0,0 UV-I 0 W/m 10,7 km/h (2 Bft)
28.08.2014 06:40 11,9 C 10,6 C 96 % 1015,3 hPa 0,0 l/m 0 min 0 min 0,0 UV-I 0 W/m 17,7 km/h (3 Bft)
28.08.2014 06:42 11,9 C 10,6 C 96 % 1015,3 hPa 0,0 l/m 0 min 0 min 0,0 UV-I 0 W/m 14,2 km/h (3 Bft)
28.08.2014 06:44 11,9 C 10,6 C 96 % 1015,2 hPa 0,0 l/m 0 min 0 min 0,0 UV-I 0 W/m 14,2 km/h (3 Bft)
28.08.2014 06:46 11,9 C 10,6 C 96 % 1015,2 hPa 0,0 l/m 0 min 0 min 0,0 UV-I 0 W/m 14,2 km/h (3 Bft)
28.08.2014 06:48 11,8 C 10,6 C 96 % 1015,2 hPa 0,0 l/m 0 min 0 min 0,0 UV-I 9 W/m 10,7 km/h (2 Bft)
28.08.2014 06:50 11,8 C 10,6 C 96 % 1015,2 hPa 0,0 l/m 0 min 0 min 0,0 UV-I 10 W/m 10,7 km/h (2 Bft)
28.08.2014 06:52 11,8 C 10,6 C 96 % 1015,3 hPa 0,0 l/m 0 min 0 min 0,0 UV-I 11 W/m 14,2 km/h (3 Bft)
28.08.2014 06:54 11,8 C 10,6 C 96 % 1015,3 hPa 0,0 l/m 0 min 0 min 0,0 UV-I 12 W/m 10,7 km/h (2 Bft)
28.08.2014 06:56 11,8 C 10,6 C 96 % 1015,3 hPa 0,0 l/m 2 min 0 min 0,0 UV-I 13 W/m 10,7 km/h (2 Bft)
28.08.2014 06:58 11,8 C 10,6 C 96 % 1015,3 hPa 0,0 l/m 0 min 0 min 0,0 UV-I 14 W/m 17,7 km/h (3 Bft)
28.08.2014 07:00 11,9 C 10,6 C 96 % 1015,3 hPa 0,0 l/m 0 min 0 min 0,0 UV-I 14 W/m 14,2 km/h (3 Bft)
28.08.2014 07:02 11,9 C 10,6 C 96 % 1015,3 hPa 0,0 l/m 0 min 0 min 0,0 UV-I 17 W/m 14,2 km/h (3 Bft)
28.08.2014 07:04 11,9 C 10,6 C 96 % 1015,3 hPa 0,0 l/m 0 min 0 min 0,0 UV-I 19 W/m 3,5 km/h (1 Bft)
28.08.2014 07:06 11,9 C 10,6 C 96 % 1015,3 hPa 0,0 l/m 2 min 0 min 0,0 UV-I 31 W/m 10,7 km/h (2 Bft)
28.08.2014 07:08 11,9 C 10,6 C 96 % 1015,3 hPa 0,0 l/m 2 min 0 min 0,0 UV-I 38 W/m 10,7 km/h (2 Bft)
28.08.2014 07:10 11,9 C 10,6 C 96 % 1015,3 hPa 0,0 l/m 2 min 0 min 0,0 UV-I 44 W/m 0,0 km/h (0 Bft)
28.08.2014 07:12 11,9 C 10,6 C 96 % 1015,3 hPa 0,0 l/m 2 min 0 min 0,0 UV-I 47 W/m 14,2 km/h (3 Bft)
28.08.2014 07:14 11,9 C 10,6 C 96 % 1015,3 hPa 0,0 l/m 2 min 0 min 0,0 UV-I 50 W/m 14,2 km/h (3 Bft)
28.08.2014 07:16 11,9 C 11,1 C 96 % 1015,3 hPa 0,0 l/m 2 min 0 min 0,0 UV-I 55 W/m 10,7 km/h (2 Bft)
28.08.2014 07:18 11,9 C 11,1 C 96 % 1015,3 hPa 0,0 l/m 2 min 0 min 0,0 UV-I 59 W/m 14,2 km/h (3 Bft)
28.08.2014 07:20 11,9 C 11,1 C 96 % 1015,3 hPa 0,0 l/m 0 min 0 min 0,0 UV-I 43 W/m 14,2 km/h (3 Bft)
28.08.2014 07:22 11,9 C 11,1 C 96 % 1015,4 hPa 0,0 l/m 0 min 0 min 0,0 UV-I 46 W/m 14,2 km/h (3 Bft)
28.08.2014 07:24 11,9 C 11,1 C 96 % 1015,3 hPa 0,0 l/m 2 min 0 min 0,0 UV-I 74 W/m 14,2 km/h (3 Bft)
28.08.2014 07:26 12,0 C 11,1 C 97 % 1015,3 hPa 0,0 l/m 2 min 0 min 0,0 UV-I 82 W/m 14,2 km/h (3 Bft)
28.08.2014 07:28 12,0 C 11,1 C 97 % 1015,3 hPa 0,0 l/m 2 min 0 min 0,0 UV-I 87 W/m 17,7 km/h (3 Bft)
28.08.2014 07:30 12,1 C 11,1 C 97 % 1015,4 hPa 0,0 l/m 2 min 0 min 0,0 UV-I 91 W/m 10,7 km/h (2 Bft)
28.08.2014 07:32 12,1 C 11,1 C 97 % 1015,4 hPa 0,0 l/m 2 min 0 min 0,0 UV-I 97 W/m 10,7 km/h (2 Bft)
28.08.2014 07:34 12,1 C 11,1 C 97 % 1015,3 hPa 0,0 l/m 2 min 0 min 0,0 UV-I 102 W/m 7,1 km/h (2 Bft)
28.08.2014 07:36 12,2 C 11,1 C 97 % 1015,4 hPa 0,0 l/m 2 min 0 min 0,0 UV-I 107 W/m 10,7 km/h (2 Bft)
28.08.2014 07:38 12,2 C 11,1 C 97 % 1015,4 hPa 0,0 l/m 2 min 0 min 0,0 UV-I 111 W/m 14,2 km/h (3 Bft)
28.08.2014 07:40 12,3 C 11,1 C 97 % 1015,4 hPa 0,0 l/m 2 min 0 min 0,0 UV-I 114 W/m 14,2 km/h (3 Bft)
28.08.2014 07:42 12,3 C 11,1 C 97 % 1015,3 hPa 0,0 l/m 2 min 0 min 0,0 UV-I 120 W/m 17,7 km/h (3 Bft)
28.08.2014 07:44 12,3 C 11,1 C 97 % 1015,3 hPa 0,0 l/m 2 min 0 min 0,0 UV-I 106 W/m 10,7 km/h (2 Bft)
28.08.2014 07:46 12,4 C 11,1 C 97 % 1015,4 hPa 0,0 l/m 2 min 0 min 0,0 UV-I 125 W/m 24,7 km/h (4 Bft)
28.08.2014 07:48 12,4 C 11,7 C 97 % 1015,3 hPa 0,0 l/m 2 min 0 min 0,0 UV-I 128 W/m 24,7 km/h (4 Bft)
28.08.2014 07:50 12,5 C 11,7 C 97 % 1015,3 hPa 0,0 l/m 2 min 0 min 0,0 UV-I 137 W/m 17,7 km/h (3 Bft)
28.08.2014 07:52 12,6 C 11,7 C 97 % 1015,4 hPa 0,0 l/m 2 min 0 min 0,0 UV-I 143 W/m 17,7 km/h (3 Bft)
28.08.2014 07:54 12,6 C 11,7 C 97 % 1015,3 hPa 0,0 l/m 2 min 0 min 0,0 UV-I 150 W/m 14,2 km/h (3 Bft)
28.08.2014 07:56 12,6 C 11,7 C 97 % 1015,4 hPa 0,0 l/m 2 min 0 min 0,0 UV-I 158 W/m 17,7 km/h (3 Bft)
28.08.2014 07:58 12,7 C 11,7 C 97 % 1015,4 hPa 0,0 l/m 2 min 0 min 0,0 UV-I 164 W/m 21,3 km/h (4 Bft)
28.08.2014 08:00 12,8 C 11,7 C 97 % 1015,3 hPa 0,0 l/m 2 min 0 min 0,0 UV-I 168 W/m 17,7 km/h (3 Bft)
28.08.2014 08:02 12,8 C 11,7 C 97 % 1015,3 hPa 0,0 l/m 2 min 0 min 0,0 UV-I 170 W/m 17,7 km/h (3 Bft)
28.08.2014 08:04 12,9 C 11,7 C 97 % 1015,3 hPa 0,0 l/m 2 min 0 min 0,0 UV-I 176 W/m 10,7 km/h (2 Bft)
28.08.2014 08:06 12,9 C 11,7 C 97 % 1015,4 hPa 0,0 l/m 2 min 0 min 0,0 UV-I 182 W/m 14,2 km/h (3 Bft)
28.08.2014 08:08 13,0 C 11,7 C 97 % 1015,4 hPa 0,0 l/m 2 min 0 min 0,0 UV-I 190 W/m 17,7 km/h (3 Bft)
28.08.2014 08:10 13,1 C 12,2 C 97 % 1015,4 hPa 0,0 l/m 2 min 0 min 0,0 UV-I 196 W/m 17,7 km/h (3 Bft)
28.08.2014 08:12 13,1 C 12,2 C 97 % 1015,4 hPa 0,0 l/m 2 min 0 min 0,0 UV-I 202 W/m 14,2 km/h (3 Bft)
28.08.2014 08:14 13,2 C 12,2 C 97 % 1015,4 hPa 0,0 l/m 2 min 0 min 0,0 UV-I 211 W/m 14,2 km/h (3 Bft)
28.08.2014 08:16 13,3 C 12,2 C 97 % 1015,4 hPa 0,0 l/m 2 min 0 min 0,0 UV-I 221 W/m 17,7 km/h (3 Bft)
28.08.2014 08:18 13,4 C 12,2 C 96 % 1015,4 hPa 0,0 l/m 2 min 0 min 0,0 UV-I 231 W/m 14,2 km/h (3 Bft)
28.08.2014 08:20 13,5 C 12,2 C 96 % 1015,4 hPa 0,0 l/m 2 min 0 min 0,0 UV-I 241 W/m 10,7 km/h (2 Bft)
28.08.2014 08:22 13,6 C 12,2 C 96 % 1015,3 hPa 0,0 l/m 2 min 0 min 0,0 UV-I 244 W/m 21,3 km/h (4 Bft)
28.08.2014 08:24 13,7 C 12,8 C 97 % 1015,3 hPa 0,0 l/m 2 min 0 min 0,0 UV-I 249 W/m 24,7 km/h (4 Bft)
28.08.2014 08:26 13,7 C 12,8 C 96 % 1015,4 hPa 0,0 l/m 2 min 0 min 0,0 UV-I 255 W/m 21,3 km/h (4 Bft)
28.08.2014 08:28 13,8 C 12,8 C 96 % 1015,4 hPa 0,0 l/m 2 min 0 min 0,0 UV-I 262 W/m 10,7 km/h (2 Bft)
28.08.2014 08:30 13,9 C 12,8 C 96 % 1015,4 hPa 0,0 l/m 2 min 0 min 0,0 UV-I 266 W/m 24,7 km/h (4 Bft)
28.08.2014 08:32 14,1 C 12,8 C 96 % 1015,4 hPa 0,0 l/m 2 min 0 min 0,0 UV-I 279 W/m 21,3 km/h (4 Bft)
28.08.2014 08:34 14,2 C 12,8 C 96 % 1015,4 hPa 0,0 l/m 2 min 0 min 0,0 UV-I 295 W/m 14,2 km/h (3 Bft)
28.08.2014 08:36 14,2 C 13,3 C 96 % 1015,4 hPa 0,0 l/m 2 min 0 min 0,0 UV-I 302 W/m 10,7 km/h (2 Bft)
28.08.2014 08:38 14,3 C 13,3 C 96 % 1015,4 hPa 0,0 l/m 2 min 0 min 0,0 UV-I 315 W/m 14,2 km/h (3 Bft)
28.08.2014 08:40 14,5 C 13,3 C 96 % 1015,4 hPa 0,0 l/m 2 min 0 min 0,0 UV-I 319 W/m 14,2 km/h (3 Bft)
28.08.2014 08:42 14,6 C 13,9 C 95 % 1015,3 hPa 0,0 l/m 2 min 0 min 0,0 UV-I 326 W/m 24,7 km/h (4 Bft)
28.08.2014 08:44 14,7 C 13,9 C 95 % 1015,4 hPa 0,0 l/m 2 min 0 min 0,0 UV-I 337 W/m 14,2 km/h (3 Bft)
28.08.2014 08:46 14,9 C 13,9 C 95 % 1015,4 hPa 0,0 l/m 2 min 0 min 0,0 UV-I 348 W/m 28,2 km/h (4 Bft)
28.08.2014 08:48 15,1 C 13,9 C 95 % 1015,4 hPa 0,0 l/m 2 min 0 min 0,0 UV-I 346 W/m 17,7 km/h (3 Bft)
28.08.2014 08:50 15,2 C 13,9 C 94 % 1015,4 hPa 0,0 l/m 2 min 0 min 0,0 UV-I 328 W/m 35,4 km/h (5 Bft)
28.08.2014 08:52 15,2 C 13,9 C 94 % 1015,4 hPa 0,0 l/m 2 min 0 min 0,0 UV-I 338 W/m 24,7 km/h (4 Bft)
28.08.2014 08:54 15,2 C 13,9 C 93 % 1015,4 hPa 0,0 l/m 2 min 0 min 0,0 UV-I 330 W/m 24,7 km/h (4 Bft)
28.08.2014 08:56 15,2 C 13,9 C 93 % 1015,4 hPa 0,0 l/m 2 min 0 min 0,0 UV-I 321 W/m 24,7 km/h (4 Bft)
28.08.2014 08:58 15,3 C 13,9 C 93 % 1015,4 hPa 0,0 l/m 2 min 0 min 0,0 UV-I 320 W/m 24,7 km/h (4 Bft)
28.08.2014 09:00 15,4 C 13,9 C 93 % 1015,4 hPa 0,0 l/m 2 min 0 min 0,0 UV-I 324 W/m 21,3 km/h (4 Bft)
28.08.2014 09:02 15,4 C 13,9 C 93 % 1015,4 hPa 0,0 l/m 2 min 0 min 0,0 UV-I 326 W/m 31,7 km/h (5 Bft)
28.08.2014 09:04 15,6 C 13,9 C 92 % 1015,4 hPa 0,0 l/m 2 min 0 min 0,0 UV-I 328 W/m 28,2 km/h (4 Bft)
28.08.2014 09:06 15,7 C 13,9 C 92 % 1015,4 hPa 0,0 l/m 2 min 0 min 0,0 UV-I 343 W/m 24,7 km/h (4 Bft)
28.08.2014 09:08 15,7 C 13,9 C 92 % 1015,4 hPa 0,0 l/m 2 min 0 min 0,0 UV-I 349 W/m 17,7 km/h (3 Bft)
28.08.2014 09:10 15,8 C 13,9 C 92 % 1015,4 hPa 0,0 l/m 2 min 0 min 0,0 UV-I 354 W/m 24,7 km/h (4 Bft)
28.08.2014 09:12 15,9 C 13,9 C 92 % 1015,4 hPa 0,0 l/m 2 min 0 min 0,0 UV-I 305 W/m 14,2 km/h (3 Bft)
28.08.2014 09:14 16,0 C 13,9 C 92 % 1015,4 hPa 0,0 l/m 2 min 0 min 0,5 UV-I 314 W/m 28,2 km/h (4 Bft)
28.08.2014 09:16 16,1 C 13,9 C 91 % 1015,4 hPa 0,0 l/m 2 min 0 min 0,5 UV-I 370 W/m 21,3 km/h (4 Bft)
28.08.2014 09:18 16,1 C 13,9 C 91 % 1015,4 hPa 0,0 l/m 2 min 0 min 0,5 UV-I 378 W/m 28,2 km/h (4 Bft)
28.08.2014 09:20 16,2 C 13,9 C 91 % 1015,4 hPa 0,0 l/m 2 min 0 min 0,6 UV-I 400 W/m 24,7 km/h (4 Bft)
28.08.2014 09:22 16,4 C 14,4 C 91 % 1015,4 hPa 0,0 l/m 2 min 0 min 0,6 UV-I 418 W/m 17,7 km/h (3 Bft)
28.08.2014 09:24 16,5 C 14,4 C 90 % 1015,4 hPa 0,0 l/m 2 min 0 min 0,3 UV-I 299 W/m 17,7 km/h (3 Bft)
28.08.2014 09:26 16,6 C 14,4 C 90 % 1015,4 hPa 0,0 l/m 2 min 0 min 0,7 UV-I 334 W/m 14,2 km/h (3 Bft)
28.08.2014 09:28 16,7 C 14,4 C 90 % 1015,3 hPa 0,0 l/m 2 min 0 min 0,7 UV-I 406 W/m 28,2 km/h (4 Bft)
28.08.2014 09:30 16,8 C 14,4 C 90 % 1015,3 hPa 0,0 l/m 2 min 0 min 0,7 UV-I 409 W/m 21,3 km/h (4 Bft)
28.08.2014 09:32 16,9 C 14,4 C 90 % 1015,3 hPa 0,0 l/m 2 min 0 min 0,8 UV-I 416 W/m 21,3 km/h (4 Bft)
28.08.2014 09:34 17,2 C 15,0 C 90 % 1015,3 hPa 0,0 l/m 2 min 0 min 0,8 UV-I 417 W/m 24,7 km/h (4 Bft)
28.08.2014 09:36 17,3 C 15,0 C 89 % 1015,4 hPa 0,0 l/m 2 min 0 min 0,9 UV-I 424 W/m 31,7 km/h (5 Bft)
28.08.2014 09:38 17,4 C 15,0 C 89 % 1015,3 hPa 0,0 l/m 2 min 0 min 0,9 UV-I 429 W/m 28,2 km/h (4 Bft)
28.08.2014 09:40 17,5 C 16,1 C 88 % 1015,3 hPa 0,0 l/m 2 min 0 min 0,9 UV-I 433 W/m 21,3 km/h (4 Bft)
28.08.2014 09:42 17,6 C 16,1 C 88 % 1015,3 hPa 0,0 l/m 2 min 0 min 0,9 UV-I 404 W/m 28,2 km/h (4 Bft)
28.08.2014 09:44 17,7 C 16,1 C 88 % 1015,3 hPa 0,0 l/m 2 min 0 min 1,0 UV-I 450 W/m 24,7 km/h (4 Bft)
28.08.2014 09:46 17,8 C 16,1 C 87 % 1015,3 hPa 0,0 l/m 2 min 0 min 0,9 UV-I 411 W/m 24,7 km/h (4 Bft)
28.08.2014 09:48 17,8 C 16,1 C 87 % 1015,3 hPa 0,0 l/m 2 min 0 min 0,9 UV-I 334 W/m 31,7 km/h (5 Bft)
28.08.2014 09:50 17,8 C 16,1 C 87 % 1015,3 hPa 0,0 l/m 2 min 0 min 1,0 UV-I 380 W/m 24,7 km/h (4 Bft)
28.08.2014 09:52 17,9 C 16,1 C 87 % 1015,3 hPa 0,0 l/m 2 min 0 min 1,0 UV-I 408 W/m 21,3 km/h (4 Bft)
28.08.2014 09:54 18,0 C 16,1 C 87 % 1015,3 hPa 0,0 l/m 2 min 0 min 1,1 UV-I 434 W/m 17,7 km/h (3 Bft)
28.08.2014 09:56 18,1 C 16,7 C 87 % 1015,3 hPa 0,0 l/m 2 min 0 min 1,2 UV-I 448 W/m 28,2 km/h (4 Bft)
28.08.2014 09:58 18,2 C 16,7 C 87 % 1015,3 hPa 0,0 l/m 2 min 0 min 1,2 UV-I 445 W/m 31,7 km/h (5 Bft)
28.08.2014 10:00 18,3 C 16,7 C 86 % 1015,4 hPa 0,0 l/m 2 min 0 min 1,2 UV-I 448 W/m 28,2 km/h (4 Bft)
28.08.2014 10:02 18,5 C 16,7 C 86 % 1015,3 hPa 0,0 l/m 2 min 0 min 1,3 UV-I 468 W/m 24,7 km/h (4 Bft)
28.08.2014 10:04 18,7 C 16,7 C 86 % 1015,3 hPa 0,0 l/m 2 min 0 min 1,3 UV-I 475 W/m 24,7 km/h (4 Bft)
28.08.2014 10:06 18,8 C 16,7 C 86 % 1015,4 hPa 0,0 l/m 2 min 0 min 1,4 UV-I 480 W/m 38,9 km/h (6 Bft)
28.08.2014 10:08 18,9 C 16,7 C 85 % 1015,3 hPa 0,0 l/m 2 min 0 min 1,3 UV-I 449 W/m 31,7 km/h (5 Bft)
28.08.2014 10:10 18,9 C 16,7 C 85 % 1015,3 hPa 0,0 l/m 2 min 0 min 1,4 UV-I 456 W/m 24,7 km/h (4 Bft)
28.08.2014 10:12 19,0 C 17,2 C 85 % 1015,3 hPa 0,0 l/m 2 min 0 min 1,4 UV-I 474 W/m 24,7 km/h (4 Bft)
28.08.2014 10:14 19,1 C 17,2 C 85 % 1015,4 hPa 0,0 l/m 2 min 0 min 1,5 UV-I 478 W/m 35,4 km/h (5 Bft)
28.08.2014 10:16 19,1 C 17,2 C 84 % 1015,3 hPa 0,0 l/m 2 min 0 min 1,5 UV-I 470 W/m 24,7 km/h (4 Bft)
28.08.2014 10:18 19,2 C 17,2 C 84 % 1015,2 hPa 0,0 l/m 2 min 0 min 1,5 UV-I 476 W/m 24,7 km/h (4 Bft)
28.08.2014 10:20 19,3 C 17,2 C 84 % 1015,2 hPa 0,0 l/m 2 min 0 min 1,6 UV-I 482 W/m 17,7 km/h (3 Bft)
28.08.2014 10:22 19,4 C 17,2 C 84 % 1015,2 hPa 0,0 l/m 2 min 0 min 1,6 UV-I 481 W/m 24,7 km/h (4 Bft)
28.08.2014 10:24 19,4 C 17,8 C 84 % 1015,2 hPa 0,0 l/m 2 min 0 min 1,7 UV-I 499 W/m 24,7 km/h (4 Bft)
28.08.2014 10:26 19,6 C 17,8 C 85 % 1015,1 hPa 0,0 l/m 2 min 0 min 1,7 UV-I 513 W/m 21,3 km/h (4 Bft)
28.08.2014 10:28 19,7 C 17,8 C 84 % 1015,1 hPa 0,0 l/m 2 min 0 min 1,8 UV-I 522 W/m 24,7 km/h (4 Bft)
28.08.2014 10:30 19,9 C 18,3 C 84 % 1015,1 hPa 0,0 l/m 2 min 0 min 1,8 UV-I 521 W/m 14,2 km/h (3 Bft)
28.08.2014 10:32 20,1 C 18,3 C 83 % 1015,1 hPa 0,0 l/m 2 min 0 min 1,8 UV-I 521 W/m 31,7 km/h (5 Bft)
28.08.2014 10:34 20,1 C 18,3 C 83 % 1015,1 hPa 0,0 l/m 2 min 0 min 1,9 UV-I 524 W/m 31,7 km/h (5 Bft)
28.08.2014 10:36 20,2 C 18,3 C 82 % 1015,1 hPa 0,0 l/m 2 min 0 min 1,9 UV-I 528 W/m 21,3 km/h (4 Bft)
28.08.2014 10:38 20,3 C 18,3 C 82 % 1015,0 hPa 0,0 l/m 2 min 0 min 2,0 UV-I 541 W/m 24,7 km/h (4 Bft)
28.08.2014 10:40 20,4 C 18,3 C 83 % 1015,1 hPa 0,0 l/m 2 min 0 min 2,0 UV-I 543 W/m 31,7 km/h (5 Bft)
28.08.2014 10:42 20,4 C 18,9 C 81 % 1015,1 hPa 0,0 l/m 2 min 0 min 2,0 UV-I 531 W/m 24,7 km/h (4 Bft)
28.08.2014 10:44 20,4 C 18,9 C 81 % 1015,1 hPa 0,0 l/m 2 min 0 min 2,0 UV-I 527 W/m 24,7 km/h (4 Bft)
28.08.2014 10:46 20,6 C 18,9 C 82 % 1015,1 hPa 0,0 l/m 2 min 0 min 2,1 UV-I 527 W/m 21,3 km/h (4 Bft)
28.08.2014 10:48 20,6 C 18,9 C 81 % 1015,1 hPa 0,0 l/m 2 min 0 min 2,1 UV-I 530 W/m 21,3 km/h (4 Bft)
28.08.2014 10:50 20,6 C 18,9 C 81 % 1015,0 hPa 0,0 l/m 2 min 0 min 2,2 UV-I 542 W/m 24,7 km/h (4 Bft)
28.08.2014 10:52 20,7 C 18,9 C 81 % 1015,1 hPa 0,0 l/m 2 min 0 min 2,2 UV-I 560 W/m 31,7 km/h (5 Bft)
28.08.2014 10:54 20,8 C 18,9 C 81 % 1015,1 hPa 0,0 l/m 2 min 0 min 2,3 UV-I 565 W/m 28,2 km/h (4 Bft)
28.08.2014 10:56 20,8 C 18,9 C 81 % 1015,1 hPa 0,0 l/m 2 min 0 min 2,3 UV-I 557 W/m 3,5 km/h (1 Bft)
28.08.2014 10:58 21,0 C 19,4 C 81 % 1015,0 hPa 0,0 l/m 2 min 0 min 2,4 UV-I 568 W/m 24,7 km/h (4 Bft)
28.08.2014 11:00 21,1 C 19,4 C 80 % 1015,1 hPa 0,0 l/m 2 min 0 min 2,4 UV-I 566 W/m 10,7 km/h (2 Bft)
28.08.2014 11:02 21,2 C 19,4 C 79 % 1015,1 hPa 0,0 l/m 2 min 0 min 2,4 UV-I 568 W/m 38,9 km/h (6 Bft)
28.08.2014 11:04 21,1 C 19,4 C 78 % 1015,0 hPa 0,0 l/m 2 min 0 min 2,4 UV-I 558 W/m 31,7 km/h (5 Bft)
28.08.2014 11:06 21,2 C 19,4 C 80 % 1015,0 hPa 0,0 l/m 2 min 0 min 2,5 UV-I 563 W/m 28,2 km/h (4 Bft)
28.08.2014 11:08 21,2 C 19,4 C 78 % 1015,0 hPa 0,0 l/m 2 min 0 min 2,5 UV-I 570 W/m 31,7 km/h (5 Bft)
28.08.2014 11:10 21,3 C 20,0 C 78 % 1015,0 hPa 0,0 l/m 2 min 0 min 2,6 UV-I 561 W/m 28,2 km/h (4 Bft)
28.08.2014 11:12 21,3 C 20,0 C 77 % 1015,0 hPa 0,0 l/m 2 min 0 min 2,6 UV-I 565 W/m 21,3 km/h (4 Bft)
28.08.2014 11:14 21,4 C 20,0 C 78 % 1015,1 hPa 0,0 l/m 2 min 0 min 2,8 UV-I 604 W/m 24,7 km/h (4 Bft)
28.08.2014 11:16 21,5 C 20,0 C 76 % 1015,0 hPa 0,0 l/m 2 min 0 min 2,8 UV-I 611 W/m 28,2 km/h (4 Bft)
28.08.2014 11:18 21,6 C 20,0 C 77 % 1015,0 hPa 0,0 l/m 2 min 0 min 2,8 UV-I 610 W/m 31,7 km/h (5 Bft)
28.08.2014 11:20 21,7 C 20,0 C 76 % 1015,0 hPa 0,0 l/m 2 min 0 min 2,8 UV-I 603 W/m 35,4 km/h (5 Bft)
28.08.2014 11:22 21,8 C 20,0 C 76 % 1015,0 hPa 0,0 l/m 2 min 0 min 2,8 UV-I 554 W/m 24,7 km/h (4 Bft)
28.08.2014 11:24 21,8 C 20,0 C 75 % 1015,0 hPa 0,0 l/m 2 min 0 min 2,8 UV-I 585 W/m 31,7 km/h (5 Bft)
28.08.2014 11:26 21,8 C 20,0 C 76 % 1014,9 hPa 0,0 l/m 2 min 0 min 2,9 UV-I 612 W/m 24,7 km/h (4 Bft)
28.08.2014 11:28 21,9 C 20,0 C 75 % 1014,9 hPa 0,0 l/m 2 min 0 min 3,0 UV-I 622 W/m 17,7 km/h (3 Bft)
28.08.2014 11:30 21,9 C 20,0 C 75 % 1015,0 hPa 0,0 l/m 2 min 0 min 2,9 UV-I 581 W/m 31,7 km/h (5 Bft)
28.08.2014 11:32 22,0 C 20,0 C 74 % 1014,9 hPa 0,0 l/m 2 min 0 min 3,0 UV-I 590 W/m 24,7 km/h (4 Bft)
28.08.2014 11:34 22,1 C 20,0 C 74 % 1014,9 hPa 0,0 l/m 2 min 0 min 2,9 UV-I 580 W/m 21,3 km/h (4 Bft)
28.08.2014 11:36 22,0 C 20,6 C 72 % 1014,9 hPa 0,0 l/m 2 min 0 min 3,0 UV-I 598 W/m 14,2 km/h (3 Bft)
28.08.2014 11:38 22,1 C 20,6 C 74 % 1014,9 hPa 0,0 l/m 2 min 0 min 3,1 UV-I 614 W/m 31,7 km/h (5 Bft)
28.08.2014 11:40 22,3 C 20,6 C 74 % 1014,9 hPa 0,0 l/m 2 min 0 min 3,2 UV-I 642 W/m 24,7 km/h (4 Bft)
28.08.2014 11:42 22,4 C 20,6 C 74 % 1014,9 hPa 0,0 l/m 2 min 0 min 3,2 UV-I 634 W/m 21,3 km/h (4 Bft)
28.08.2014 11:44 22,6 C 21,1 C 74 % 1014,9 hPa 0,0 l/m 2 min 0 min 3,1 UV-I 612 W/m 17,7 km/h (3 Bft)
28.08.2014 11:46 22,6 C 20,6 C 72 % 1014,8 hPa 0,0 l/m 2 min 0 min 3,3 UV-I 665 W/m 21,3 km/h (4 Bft)
28.08.2014 11:48 22,4 C 20,6 C 71 % 1014,8 hPa 0,0 l/m 2 min 0 min 2,8 UV-I 665 W/m 28,2 km/h (4 Bft)
28.08.2014 11:50 22,5 C 20,6 C 72 % 1014,8 hPa 0,0 l/m 2 min 0 min 3,5 UV-I 682 W/m 24,7 km/h (4 Bft)
28.08.2014 11:52 22,7 C 20,6 C 72 % 1014,8 hPa 0,0 l/m 2 min 0 min 3,5 UV-I 686 W/m 38,9 km/h (6 Bft)
28.08.2014 11:54 22,7 C 20,6 C 71 % 1014,8 hPa 0,0 l/m 2 min 0 min 3,3 UV-I 620 W/m 28,2 km/h (4 Bft)
28.08.2014 11:56 22,5 C 21,1 C 72 % 1014,8 hPa 0,0 l/m 2 min 0 min 3,4 UV-I 644 W/m 31,7 km/h (5 Bft)
28.08.2014 11:58 22,6 C 21,1 C 72 % 1014,7 hPa 0,0 l/m 2 min 0 min 3,3 UV-I 640 W/m 31,7 km/h (5 Bft)
28.08.2014 12:00 22,6 C 21,1 C 73 % 1014,6 hPa 0,0 l/m 2 min 0 min 3,5 UV-I 627 W/m 28,2 km/h (4 Bft)
28.08.2014 12:02 22,7 C 21,1 C 72 % 1014,6 hPa 0,0 l/m 2 min 0 min 3,4 UV-I 616 W/m 24,7 km/h (4 Bft)
28.08.2014 12:06 22,4 C 20,6 C 71 % 1014,6 hPa 0,0 l/m 2 min 0 min 2,6 UV-I 363 W/m 35,4 km/h (5 Bft)
28.08.2014 12:08 22,3 C 20,6 C 72 % 1014,7 hPa 0,0 l/m 2 min 0 min 3,4 UV-I 509 W/m 21,3 km/h (4 Bft)
28.08.2014 12:10 22,3 C 20,6 C 73 % 1014,6 hPa 0,0 l/m 2 min 0 min 3,4 UV-I 498 W/m 17,7 km/h (3 Bft)
28.08.2014 12:12 22,5 C 21,1 C 73 % 1014,5 hPa 0,0 l/m 0 min 0 min 3,3 UV-I 302 W/m 28,2 km/h (4 Bft)
28.08.2014 12:14 22,4 C 21,1 C 71 % 1014,6 hPa 0,0 l/m 2 min 0 min 3,5 UV-I 395 W/m 24,7 km/h (4 Bft)
28.08.2014 12:16 22,6 C 21,1 C 72 % 1014,6 hPa 0,0 l/m 2 min 0 min 3,8 UV-I 407 W/m 38,9 km/h (6 Bft)
28.08.2014 12:18 22,8 C 21,1 C 71 % 1014,6 hPa 0,0 l/m 0 min 0 min 3,9 UV-I 304 W/m 42,4 km/h (6 Bft)
28.08.2014 12:20 23,0 C 21,7 C 73 % 1014,6 hPa 0,0 l/m 0 min 0 min 3,9 UV-I 230 W/m 46,0 km/h (6 Bft)
28.08.2014 12:22 23,2 C 21,7 C 71 % 1014,6 hPa 0,0 l/m 0 min 0 min 3,8 UV-I 324 W/m 28,2 km/h (4 Bft)
28.08.2014 12:24 23,2 C 21,7 C 69 % 1014,6 hPa 0,0 l/m 2 min 0 min 4,0 UV-I 460 W/m 35,4 km/h (5 Bft)
28.08.2014 12:26 23,1 C 21,7 C 69 % 1014,6 hPa 0,0 l/m 2 min 0 min 3,0 UV-I 588 W/m 31,7 km/h (5 Bft)
28.08.2014 12:28 22,8 C 21,1 C 69 % 1014,6 hPa 0,0 l/m 2 min 0 min 2,0 UV-I 358 W/m 35,4 km/h (5 Bft)
28.08.2014 12:30 22,5 C 21,1 C 70 % 1014,6 hPa 0,0 l/m 0 min 0 min 2,6 UV-I 271 W/m 28,2 km/h (4 Bft)
28.08.2014 12:32 22,6 C 21,7 C 72 % 1014,6 hPa 0,0 l/m 0 min 0 min 3,8 UV-I 299 W/m 14,2 km/h (3 Bft)
28.08.2014 12:34 22,8 C 21,7 C 72 % 1014,5 hPa 0,0 l/m 2 min 0 min 3,0 UV-I 538 W/m 31,7 km/h (5 Bft)
28.08.2014 12:36 22,9 C 21,7 C 71 % 1014,5 hPa 0,0 l/m 2 min 0 min 2,5 UV-I 417 W/m 42,4 km/h (6 Bft)
28.08.2014 12:38 22,8 C 21,7 C 71 % 1014,5 hPa 0,0 l/m 2 min 0 min 2,9 UV-I 376 W/m 35,4 km/h (5 Bft)
28.08.2014 12:40 22,9 C 21,7 C 70 % 1014,4 hPa 0,0 l/m 2 min 0 min 3,1 UV-I 541 W/m 42,4 km/h (6 Bft)
28.08.2014 12:42 22,9 C 22,2 C 71 % 1014,4 hPa 0,0 l/m 2 min 0 min 2,9 UV-I 520 W/m 28,2 km/h (4 Bft)
28.08.2014 12:44 23,1 C 22,2 C 72 % 1014,5 hPa 0,0 l/m 2 min 0 min 3,0 UV-I 454 W/m 31,7 km/h (5 Bft)
28.08.2014 12:46 23,1 C 22,2 C 71 % 1014,6 hPa 0,0 l/m 2 min 0 min 3,7 UV-I 445 W/m 28,2 km/h (4 Bft)
28.08.2014 12:48 23,1 C 22,2 C 71 % 1014,5 hPa 0,0 l/m 2 min 0 min 3,0 UV-I 449 W/m 24,7 km/h (4 Bft)
28.08.2014 12:50 23,0 C 22,2 C 72 % 1014,5 hPa 0,0 l/m 2 min 0 min 3,5 UV-I 506 W/m 17,7 km/h (3 Bft)
28.08.2014 12:52 23,1 C 22,8 C 71 % 1014,4 hPa 0,0 l/m 2 min 0 min 3,4 UV-I 577 W/m 24,7 km/h (4 Bft)
28.08.2014 12:54 23,2 C 22,8 C 70 % 1014,5 hPa 0,0 l/m 2 min 0 min 4,3 UV-I 677 W/m 17,7 km/h (3 Bft)
28.08.2014 12:56 23,2 C 22,8 C 68 % 1014,4 hPa 0,0 l/m 2 min 0 min 3,9 UV-I 895 W/m 7,1 km/h (2 Bft)
28.08.2014 12:58 23,1 C 22,2 C 69 % 1014,3 hPa 0,0 l/m 2 min 0 min 2,3 UV-I 502 W/m 24,7 km/h (4 Bft)
28.08.2014 13:00 23,0 C 22,2 C 69 % 1014,4 hPa 0,0 l/m 0 min 0 min 2,6 UV-I 306 W/m 31,7 km/h (5 Bft)
28.08.2014 13:02 22,9 C 22,2 C 69 % 1014,4 hPa 0,0 l/m 0 min 0 min 2,0 UV-I 323 W/m 28,2 km/h (4 Bft)
28.08.2014 13:04 22,6 C 21,7 C 69 % 1014,4 hPa 0,0 l/m 0 min 0 min 2,1 UV-I 325 W/m 28,2 km/h (4 Bft)
28.08.2014 13:06 22,5 C 21,7 C 72 % 1014,4 hPa 0,0 l/m 2 min 0 min 2,5 UV-I 428 W/m 17,7 km/h (3 Bft)
28.08.2014 13:08 22,6 C 22,2 C 72 % 1014,3 hPa 0,0 l/m 2 min 0 min 2,4 UV-I 368 W/m 17,7 km/h (3 Bft)
28.08.2014 13:10 22,6 C 21,7 C 71 % 1014,3 hPa 0,0 l/m 0 min 0 min 2,2 UV-I 356 W/m 38,9 km/h (6 Bft)
28.08.2014 13:12 22,5 C 21,7 C 71 % 1014,3 hPa 0,0 l/m 0 min 0 min 2,2 UV-I 359 W/m 35,4 km/h (5 Bft)
28.08.2014 13:14 22,5 C 21,7 C 71 % 1014,4 hPa 0,0 l/m 0 min 0 min 2,4 UV-I 359 W/m 31,7 km/h (5 Bft)
28.08.2014 13:16 22,5 C 21,7 C 70 % 1014,3 hPa 0,0 l/m 2 min 0 min 2,9 UV-I 425 W/m 21,3 km/h (4 Bft)
28.08.2014 13:18 22,6 C 22,2 C 71 % 1014,3 hPa 0,0 l/m 2 min 0 min 2,8 UV-I 445 W/m 21,3 km/h (4 Bft)
28.08.2014 13:20 22,6 C 22,2 C 73 % 1014,2 hPa 0,0 l/m 2 min 0 min 2,7 UV-I 418 W/m 35,4 km/h (5 Bft)
28.08.2014 13:22 22,7 C 22,2 C 73 % 1014,3 hPa 0,0 l/m 2 min 0 min 2,8 UV-I 398 W/m 49,5 km/h (6 Bft)
28.08.2014 13:24 22,8 C 22,2 C 72 % 1014,3 hPa 0,0 l/m 2 min 0 min 2,8 UV-I 402 W/m 28,2 km/h (4 Bft)
28.08.2014 13:26 22,8 C 22,2 C 72 % 1014,2 hPa 0,0 l/m 2 min 0 min 3,3 UV-I 472 W/m 24,7 km/h (4 Bft)
28.08.2014 13:28 22,8 C 22,2 C 72 % 1014,2 hPa 0,0 l/m 2 min 0 min 3,1 UV-I 443 W/m 24,7 km/h (4 Bft)
28.08.2014 13:30 22,9 C 22,2 C 72 % 1014,1 hPa 0,0 l/m 2 min 0 min 2,9 UV-I 406 W/m 38,9 km/h (6 Bft)
28.08.2014 13:32 23,0 C 22,2 C 71 % 1014,1 hPa 0,0 l/m 2 min 0 min 3,2 UV-I 466 W/m 35,4 km/h (5 Bft)
28.08.2014 13:34 23,0 C 22,8 C 70 % 1014,1 hPa 0,0 l/m 2 min 0 min 3,4 UV-I 519 W/m 28,2 km/h (4 Bft)
28.08.2014 13:36 23,1 C 22,8 C 70 % 1014,1 hPa 0,0 l/m 2 min 0 min 3,5 UV-I 693 W/m 38,9 km/h (6 Bft)
28.08.2014 13:38 23,2 C 22,8 C 70 % 1014,1 hPa 0,0 l/m 2 min 0 min 2,7 UV-I 576 W/m 38,9 km/h (6 Bft)
28.08.2014 13:40 23,2 C 22,2 C 70 % 1014,1 hPa 0,0 l/m 2 min 0 min 2,5 UV-I 416 W/m 28,2 km/h (4 Bft)
28.08.2014 13:42 23,2 C 22,2 C 72 % 1014,1 hPa 0,0 l/m 2 min 0 min 2,6 UV-I 407 W/m 24,7 km/h (4 Bft)
28.08.2014 13:44 23,2 C 22,8 C 71 % 1014,1 hPa 0,0 l/m 2 min 0 min 2,8 UV-I 401 W/m 24,7 km/h (4 Bft)
28.08.2014 13:46 23,2 C 22,2 C 70 % 1014,1 hPa 0,0 l/m 2 min 0 min 2,6 UV-I 395 W/m 31,7 km/h (5 Bft)
28.08.2014 13:48 23,2 C 22,2 C 71 % 1014,1 hPa 0,0 l/m 0 min 0 min 2,3 UV-I 351 W/m 21,3 km/h (4 Bft)
28.08.2014 13:50 23,2 C 22,2 C 71 % 1014,1 hPa 0,0 l/m 0 min 0 min 2,3 UV-I 354 W/m 31,7 km/h (5 Bft)
28.08.2014 13:52 23,2 C 22,2 C 71 % 1014,1 hPa 0,0 l/m 2 min 0 min 2,4 UV-I 371 W/m 35,4 km/h (5 Bft)
28.08.2014 13:54 23,1 C 22,2 C 70 % 1014,1 hPa 0,0 l/m 2 min 0 min 2,5 UV-I 397 W/m 24,7 km/h (4 Bft)
28.08.2014 13:56 23,1 C 22,8 C 71 % 1014,1 hPa 0,0 l/m 2 min 0 min 2,7 UV-I 454 W/m 28,2 km/h (4 Bft)
28.08.2014 13:58 23,1 C 22,8 C 71 % 1014,1 hPa 0,0 l/m 2 min 0 min 2,9 UV-I 447 W/m 24,7 km/h (4 Bft)
28.08.2014 14:00 23,1 C 22,8 C 71 % 1014,1 hPa 0,0 l/m 2 min 0 min 2,8 UV-I 424 W/m 17,7 km/h (3 Bft)
28.08.2014 14:02 23,1 C 22,8 C 71 % 1014,0 hPa 0,0 l/m 2 min 0 min 2,7 UV-I 419 W/m 17,7 km/h (3 Bft)
28.08.2014 14:04 23,2 C 22,8 C 72 % 1014,0 hPa 0,0 l/m 2 min 0 min 2,8 UV-I 430 W/m 24,7 km/h (4 Bft)
28.08.2014 14:06 23,3 C 22,8 C 71 % 1014,0 hPa 0,0 l/m 2 min 0 min 3,0 UV-I 492 W/m 28,2 km/h (4 Bft)
28.08.2014 14:08 23,4 C 22,8 C 72 % 1014,0 hPa 0,0 l/m 2 min 0 min 2,3 UV-I 386 W/m 28,2 km/h (4 Bft)
28.08.2014 14:10 23,3 C 22,8 C 70 % 1014,0 hPa 0,0 l/m 0 min 0 min 2,0 UV-I 269 W/m 28,2 km/h (4 Bft)
28.08.2014 14:12 23,3 C 22,2 C 71 % 1014,0 hPa 0,0 l/m 0 min 0 min 1,4 UV-I 207 W/m 17,7 km/h (3 Bft)
28.08.2014 14:14 23,2 C 21,7 C 71 % 1014,0 hPa 0,0 l/m 0 min 0 min 1,1 UV-I 172 W/m 21,3 km/h (4 Bft)
28.08.2014 14:16 23,0 C 21,7 C 71 % 1014,0 hPa 0,0 l/m 0 min 0 min 0,8 UV-I 158 W/m 21,3 km/h (4 Bft)
28.08.2014 14:18 22,8 C 21,1 C 71 % 1014,0 hPa 0,0 l/m 0 min 0 min 0,8 UV-I 164 W/m 24,7 km/h (4 Bft)
28.08.2014 14:20 22,7 C 21,1 C 72 % 1014,0 hPa 0,0 l/m 0 min 0 min 0,9 UV-I 177 W/m 17,7 km/h (3 Bft)
28.08.2014 14:22 22,6 C 21,1 C 73 % 1014,0 hPa 0,0 l/m 0 min 0 min 0,9 UV-I 167 W/m 10,7 km/h (2 Bft)
28.08.2014 14:24 22,6 C 21,1 C 74 % 1014,0 hPa 0,0 l/m 0 min 0 min 0,7 UV-I 140 W/m 0,0 km/h (0 Bft)
28.08.2014 14:26 22,5 C 21,1 C 73 % 1014,0 hPa 0,0 l/m 0 min 0 min 0,4 UV-I 111 W/m 0,0 km/h (0 Bft)
28.08.2014 14:28 22,4 C 20,6 C 74 % 1014,0 hPa 0,0 l/m 0 min 0 min 0,0 UV-I 90 W/m 0,0 km/h (0 Bft)
28.08.2014 14:30 22,3 C 20,6 C 74 % 1014,0 hPa 0,0 l/m 0 min 0 min 0,0 UV-I 90 W/m 3,5 km/h (1 Bft)
28.08.2014 14:32 22,2 C 20,6 C 73 % 1014,0 hPa 0,0 l/m 0 min 0 min 0,0 UV-I 109 W/m 17,7 km/h (3 Bft)
28.08.2014 14:34 22,1 C 20,6 C 73 % 1014,0 hPa 0,0 l/m 0 min 0 min 0,4 UV-I 132 W/m 24,7 km/h (4 Bft)
28.08.2014 14:36 22,0 C 20,0 C 73 % 1014,0 hPa 0,0 l/m 0 min 0 min 0,6 UV-I 152 W/m 28,2 km/h (4 Bft)
28.08.2014 14:38 21,9 C 20,0 C 72 % 1014,0 hPa 0,0 l/m 0 min 0 min 0,8 UV-I 163 W/m 24,7 km/h (4 Bft)
28.08.2014 14:40 21,9 C 20,6 C 73 % 1014,0 hPa 0,0 l/m 0 min 0 min 0,8 UV-I 167 W/m 14,2 km/h (3 Bft)
28.08.2014 14:42 21,9 C 20,6 C 73 % 1014,0 hPa 0,0 l/m 0 min 0 min 0,8 UV-I 167 W/m 24,7 km/h (4 Bft)
28.08.2014 14:44 22,0 C 20,6 C 73 % 1014,0 hPa 0,0 l/m 0 min 0 min 0,8 UV-I 166 W/m 24,7 km/h (4 Bft)
28.08.2014 14:46 21,9 C 20,6 C 73 % 1014,0 hPa 0,0 l/m 0 min 0 min 0,8 UV-I 170 W/m 21,3 km/h (4 Bft)
28.08.2014 14:48 21,9 C 20,6 C 74 % 1014,0 hPa 0,0 l/m 0 min 0 min 0,9 UV-I 182 W/m 28,2 km/h (4 Bft)
28.08.2014 14:50 21,9 C 20,6 C 74 % 1014,0 hPa 0,0 l/m 0 min 0 min 1,0 UV-I 198 W/m 17,7 km/h (3 Bft)
28.08.2014 14:52 22,0 C 20,6 C 75 % 1014,0 hPa 0,0 l/m 0 min 0 min 1,1 UV-I 222 W/m 17,7 km/h (3 Bft)
28.08.2014 14:54 22,0 C 20,6 C 74 % 1014,0 hPa 0,0 l/m 0 min 0 min 1,4 UV-I 260 W/m 10,7 km/h (2 Bft)
28.08.2014 14:56 22,1 C 21,1 C 74 % 1014,0 hPa 0,0 l/m 0 min 0 min 1,7 UV-I 297 W/m 10,7 km/h (2 Bft)
28.08.2014 14:58 22,1 C 21,1 C 73 % 1014,0 hPa 0,0 l/m 0 min 0 min 1,8 UV-I 299 W/m 21,3 km/h (4 Bft)
28.08.2014 15:00 22,2 C 21,1 C 74 % 1014,0 hPa 0,0 l/m 0 min 0 min 1,7 UV-I 281 W/m 21,3 km/h (4 Bft)
28.08.2014 15:02 22,3 C 21,1 C 73 % 1014,0 hPa 0,0 l/m 0 min 0 min 1,7 UV-I 260 W/m 21,3 km/h (4 Bft)
28.08.2014 15:04 22,4 C 21,1 C 74 % 1014,0 hPa 0,0 l/m 0 min 0 min 1,6 UV-I 249 W/m 31,7 km/h (5 Bft)
28.08.2014 15:06 22,4 C 21,1 C 73 % 1014,0 hPa 0,0 l/m 0 min 0 min 1,5 UV-I 246 W/m 31,7 km/h (5 Bft)
28.08.2014 15:08 22,4 C 21,1 C 72 % 1014,0 hPa 0,0 l/m 0 min 0 min 1,4 UV-I 252 W/m 21,3 km/h (4 Bft)
28.08.2014 15:10 22,4 C 21,1 C 73 % 1013,9 hPa 0,0 l/m 0 min 0 min 1,4 UV-I 255 W/m 14,2 km/h (3 Bft)
28.08.2014 15:12 22,4 C 21,1 C 73 % 1013,9 hPa 0,0 l/m 0 min 0 min 1,4 UV-I 255 W/m 17,7 km/h (3 Bft)
28.08.2014 15:14 22,4 C 21,7 C 72 % 1013,9 hPa 0,0 l/m 0 min 0 min 1,4 UV-I 257 W/m 14,2 km/h (3 Bft)
28.08.2014 15:16 22,5 C 21,7 C 73 % 1013,9 hPa 0,0 l/m 0 min 0 min 1,4 UV-I 253 W/m 14,2 km/h (3 Bft)
28.08.2014 15:18 22,6 C 21,7 C 73 % 1013,9 hPa 0,0 l/m 0 min 0 min 1,3 UV-I 250 W/m 10,7 km/h (2 Bft)
28.08.2014 15:20 22,6 C 21,7 C 74 % 1013,9 hPa 0,0 l/m 0 min 0 min 1,3 UV-I 250 W/m 14,2 km/h (3 Bft)
28.08.2014 15:22 22,6 C 21,7 C 72 % 1013,9 hPa 0,0 l/m 0 min 0 min 1,2 UV-I 243 W/m 24,7 km/h (4 Bft)
28.08.2014 15:24 22,6 C 21,7 C 72 % 1013,9 hPa 0,0 l/m 0 min 0 min 1,1 UV-I 224 W/m 42,4 km/h (6 Bft)
28.08.2014 15:26 22,6 C 21,7 C 72 % 1013,9 hPa 0,0 l/m 0 min 0 min 1,0 UV-I 223 W/m 35,4 km/h (5 Bft)
28.08.2014 15:28 22,6 C 21,7 C 71 % 1013,9 hPa 0,0 l/m 0 min 0 min 1,1 UV-I 230 W/m 28,2 km/h (4 Bft)
28.08.2014 15:30 22,6 C 21,1 C 71 % 1013,9 hPa 0,0 l/m 0 min 0 min 1,2 UV-I 233 W/m 35,4 km/h (5 Bft)
28.08.2014 15:32 22,6 C 21,1 C 72 % 1013,9 hPa 0,0 l/m 0 min 0 min 1,2 UV-I 234 W/m 28,2 km/h (4 Bft)
28.08.2014 15:34 22,5 C 21,7 C 72 % 1013,9 hPa 0,0 l/m 0 min 0 min 1,2 UV-I 232 W/m 21,3 km/h (4 Bft)
28.08.2014 15:36 22,4 C 21,1 C 71 % 1013,9 hPa 0,0 l/m 0 min 0 min 1,2 UV-I 226 W/m 28,2 km/h (4 Bft)
28.08.2014 15:38 22,4 C 21,1 C 72 % 1013,9 hPa 0,0 l/m 0 min 0 min 1,2 UV-I 222 W/m 24,7 km/h (4 Bft)
28.08.2014 15:40 22,3 C 21,1 C 72 % 1013,8 hPa 0,0 l/m 0 min 0 min 1,1 UV-I 208 W/m 17,7 km/h (3 Bft)
28.08.2014 15:42 22,4 C 21,1 C 73 % 1013,8 hPa 0,0 l/m 0 min 0 min 0,9 UV-I 187 W/m 24,7 km/h (4 Bft)
28.08.2014 15:44 22,4 C 21,1 C 73 % 1013,8 hPa 0,0 l/m 0 min 0 min 0,8 UV-I 173 W/m 28,2 km/h (4 Bft)
28.08.2014 15:46 22,3 C 21,1 C 72 % 1013,8 hPa 0,0 l/m 0 min 0 min 0,8 UV-I 171 W/m 31,7 km/h (5 Bft)
28.08.2014 15:48 22,2 C 20,6 C 72 % 1013,9 hPa 0,0 l/m 0 min 0 min 0,8 UV-I 183 W/m 38,9 km/h (6 Bft)
28.08.2014 15:50 22,1 C 20,6 C 72 % 1013,9 hPa 0,0 l/m 0 min 0 min 0,9 UV-I 204 W/m 38,9 km/h (6 Bft)
28.08.2014 15:52 22,0 C 20,6 C 73 % 1013,9 hPa 0,0 l/m 0 min 0 min 1,0 UV-I 226 W/m 35,4 km/h (5 Bft)
28.08.2014 15:54 22,0 C 21,1 C 73 % 1013,9 hPa 0,0 l/m 0 min 0 min 1,1 UV-I 241 W/m 28,2 km/h (4 Bft)
28.08.2014 15:56 22,0 C 21,1 C 74 % 1013,8 hPa 0,0 l/m 0 min 0 min 1,1 UV-I 242 W/m 38,9 km/h (6 Bft)
28.08.2014 15:58 22,1 C 21,1 C 74 % 1013,8 hPa 0,0 l/m 0 min 0 min 1,1 UV-I 240 W/m 35,4 km/h (5 Bft)
28.08.2014 16:00 22,1 C 21,1 C 73 % 1013,8 hPa 0,0 l/m 0 min 0 min 1,0 UV-I 233 W/m 38,9 km/h (6 Bft)
28.08.2014 16:02 22,1 C 21,1 C 73 % 1013,8 hPa 0,0 l/m 0 min 0 min 1,0 UV-I 227 W/m 31,7 km/h (5 Bft)
28.08.2014 16:04 22,1 C 21,1 C 74 % 1013,8 hPa 0,0 l/m 0 min 0 min 0,9 UV-I 212 W/m 35,4 km/h (5 Bft)
28.08.2014 16:06 22,1 C 21,1 C 73 % 1013,9 hPa 0,0 l/m 0 min 0 min 0,8 UV-I 190 W/m 24,7 km/h (4 Bft)
28.08.2014 16:08 22,1 C 21,1 C 74 % 1013,8 hPa 0,0 l/m 0 min 0 min 0,6 UV-I 167 W/m 38,9 km/h (6 Bft)
28.08.2014 16:10 22,0 C 20,6 C 74 % 1013,8 hPa 0,0 l/m 0 min 0 min 0,5 UV-I 151 W/m 42,4 km/h (6 Bft)
28.08.2014 16:12 21,9 C 20,6 C 74 % 1013,8 hPa 0,0 l/m 0 min 0 min 0,5 UV-I 147 W/m 42,4 km/h (6 Bft)
28.08.2014 16:14 21,8 C 20,6 C 75 % 1013,8 hPa 0,0 l/m 0 min 0 min 0,1 UV-I 139 W/m 46,0 km/h (6 Bft)
28.08.2014 16:16 21,7 C 20,6 C 76 % 1013,9 hPa 0,0 l/m 0 min 0 min 0,0 UV-I 126 W/m 42,4 km/h (6 Bft)
28.08.2014 16:18 21,6 C 20,0 C 76 % 1013,8 hPa 0,0 l/m 0 min 0 min 0,0 UV-I 122 W/m 38,9 km/h (6 Bft)
28.08.2014 16:20 21,5 C 20,0 C 76 % 1013,8 hPa 0,0 l/m 0 min 0 min 0,0 UV-I 134 W/m 31,7 km/h (5 Bft)
28.08.2014 16:22 21,4 C 20,0 C 77 % 1013,8 hPa 0,0 l/m 0 min 0 min 0,3 UV-I 160 W/m 35,4 km/h (5 Bft)
28.08.2014 16:24 21,4 C 20,0 C 77 % 1013,9 hPa 0,0 l/m 0 min 0 min 0,6 UV-I 189 W/m 24,7 km/h (4 Bft)
28.08.2014 16:26 21,4 C 20,6 C 77 % 1013,9 hPa 0,0 l/m 0 min 0 min 0,7 UV-I 206 W/m 31,7 km/h (5 Bft)
28.08.2014 16:28 21,4 C 20,6 C 78 % 1013,9 hPa 0,0 l/m 0 min 0 min 0,8 UV-I 198 W/m 35,4 km/h (5 Bft)
28.08.2014 16:30 21,4 C 20,6 C 77 % 1013,8 hPa 0,0 l/m 0 min 0 min 0,7 UV-I 182 W/m 38,9 km/h (6 Bft)
28.08.2014 16:32 21,4 C 20,6 C 77 % 1013,8 hPa 0,0 l/m 0 min 0 min 0,6 UV-I 170 W/m 24,7 km/h (4 Bft)
28.08.2014 16:34 21,4 C 20,6 C 77 % 1013,8 hPa 0,0 l/m 0 min 0 min 0,2 UV-I 157 W/m 28,2 km/h (4 Bft)
28.08.2014 16:36 21,4 C 20,6 C 77 % 1013,8 hPa 0,0 l/m 0 min 0 min 0,0 UV-I 149 W/m 24,7 km/h (4 Bft)
28.08.2014 16:38 21,4 C 20,6 C 77 % 1013,8 hPa 0,0 l/m 0 min 0 min 0,0 UV-I 149 W/m 28,2 km/h (4 Bft)
28.08.2014 16:40 21,4 C 20,6 C 77 % 1013,8 hPa 0,0 l/m 0 min 0 min 0,1 UV-I 164 W/m 35,4 km/h (5 Bft)
28.08.2014 16:42 21,4 C 20,6 C 77 % 1013,8 hPa 0,0 l/m 0 min 0 min 0,5 UV-I 190 W/m 35,4 km/h (5 Bft)
28.08.2014 16:44 21,4 C 20,6 C 77 % 1013,9 hPa 0,0 l/m 0 min 0 min 0,6 UV-I 210 W/m 28,2 km/h (4 Bft)
28.08.2014 16:46 21,5 C 20,6 C 78 % 1013,9 hPa 0,0 l/m 0 min 0 min 0,7 UV-I 232 W/m 42,4 km/h (6 Bft)
28.08.2014 16:48 21,6 C 21,1 C 78 % 1013,8 hPa 0,0 l/m 0 min 0 min 0,7 UV-I 236 W/m 21,3 km/h (4 Bft)
28.08.2014 16:50 21,7 C 21,1 C 78 % 1013,8 hPa 0,0 l/m 0 min 0 min 0,7 UV-I 223 W/m 28,2 km/h (4 Bft)
28.08.2014 16:52 21,7 C 21,1 C 78 % 1013,8 hPa 0,0 l/m 0 min 0 min 0,6 UV-I 214 W/m 24,7 km/h (4 Bft)
28.08.2014 16:54 21,7 C 21,1 C 79 % 1013,8 hPa 0,0 l/m 0 min 0 min 0,7 UV-I 226 W/m 38,9 km/h (6 Bft)
28.08.2014 16:56 21,7 C 21,1 C 79 % 1013,9 hPa 0,0 l/m 0 min 0 min 0,7 UV-I 201 W/m 24,7 km/h (4 Bft)
28.08.2014 16:58 21,7 C 21,1 C 78 % 1013,9 hPa 0,0 l/m 0 min 0 min 0,5 UV-I 164 W/m 24,7 km/h (4 Bft)
28.08.2014 17:00 21,7 C 21,1 C 78 % 1013,8 hPa 0,0 l/m 0 min 0 min 0,0 UV-I 146 W/m 31,7 km/h (5 Bft)
28.08.2014 17:02 21,6 C 20,6 C 78 % 1013,9 hPa 0,0 l/m 0 min 0 min 0,0 UV-I 147 W/m 31,7 km/h (5 Bft)
28.08.2014 17:04 21,5 C 20,6 C 78 % 1013,8 hPa 0,0 l/m 0 min 0 min 0,0 UV-I 172 W/m 24,7 km/h (4 Bft)
28.08.2014 17:06 21,5 C 20,6 C 78 % 1013,7 hPa 0,0 l/m 0 min 0 min 0,4 UV-I 197 W/m 31,7 km/h (5 Bft)
28.08.2014 17:08 21,4 C 20,6 C 78 % 1013,7 hPa 0,0 l/m 0 min 0 min 0,6 UV-I 214 W/m 28,2 km/h (4 Bft)
28.08.2014 17:10 21,5 C 20,6 C 78 % 1013,7 hPa 0,0 l/m 0 min 0 min 0,6 UV-I 224 W/m 24,7 km/h (4 Bft)
28.08.2014 17:12 21,6 C 21,1 C 78 % 1013,6 hPa 0,0 l/m 0 min 0 min 0,6 UV-I 219 W/m 31,7 km/h (5 Bft)
28.08.2014 17:14 21,6 C 21,1 C 78 % 1013,6 hPa 0,0 l/m 0 min 0 min 0,5 UV-I 211 W/m 21,3 km/h (4 Bft)
28.08.2014 17:16 21,6 C 21,1 C 78 % 1013,6 hPa 0,0 l/m 0 min 0 min 0,5 UV-I 209 W/m 28,2 km/h (4 Bft)
28.08.2014 17:18 21,6 C 21,1 C 78 % 1013,7 hPa 0,0 l/m 0 min 0 min 0,5 UV-I 203 W/m 35,4 km/h (5 Bft)
28.08.2014 17:20 21,7 C 21,1 C 78 % 1013,7 hPa 0,0 l/m 0 min 0 min 0,5 UV-I 198 W/m 28,2 km/h (4 Bft)
28.08.2014 17:22 21,7 C 21,1 C 78 % 1013,7 hPa 0,0 l/m 0 min 0 min 0,4 UV-I 193 W/m 28,2 km/h (4 Bft)
28.08.2014 17:24 21,7 C 21,1 C 78 % 1013,7 hPa 0,0 l/m 0 min 0 min 0,0 UV-I 187 W/m 38,9 km/h (6 Bft)
28.08.2014 17:26 21,6 C 21,1 C 78 % 1013,7 hPa 0,0 l/m 0 min 0 min 0,0 UV-I 183 W/m 28,2 km/h (4 Bft)
28.08.2014 17:28 21,6 C 21,1 C 78 % 1013,7 hPa 0,0 l/m 0 min 0 min 0,0 UV-I 176 W/m 24,7 km/h (4 Bft)
28.08.2014 17:30 21,6 C 20,6 C 78 % 1013,6 hPa 0,0 l/m 0 min 0 min 0,0 UV-I 170 W/m 31,7 km/h (5 Bft)
28.08.2014 17:32 21,6 C 20,6 C 78 % 1013,6 hPa 0,0 l/m 0 min 0 min 0,0 UV-I 169 W/m 38,9 km/h (6 Bft)
28.08.2014 17:34 21,6 C 20,6 C 78 % 1013,7 hPa 0,0 l/m 0 min 0 min 0,0 UV-I 170 W/m 31,7 km/h (5 Bft)
28.08.2014 17:36 21,6 C 20,6 C 78 % 1013,7 hPa 0,0 l/m 0 min 0 min 0,0 UV-I 161 W/m 24,7 km/h (4 Bft)
28.08.2014 17:38 21,6 C 20,6 C 78 % 1013,7 hPa 0,0 l/m 0 min 0 min 0,0 UV-I 155 W/m 24,7 km/h (4 Bft)
28.08.2014 17:40 21,6 C 20,6 C 79 % 1013,7 hPa 0,0 l/m 0 min 0 min 0,0 UV-I 157 W/m 28,2 km/h (4 Bft)
28.08.2014 17:42 21,7 C 20,6 C 78 % 1013,6 hPa 0,0 l/m 0 min 0 min 0,0 UV-I 168 W/m 21,3 km/h (4 Bft)
28.08.2014 17:44 21,7 C 21,1 C 79 % 1013,6 hPa 0,0 l/m 0 min 0 min 0,0 UV-I 187 W/m 21,3 km/h (4 Bft)
28.08.2014 17:46 21,7 C 21,1 C 79 % 1013,6 hPa 0,0 l/m 0 min 0 min 0,0 UV-I 195 W/m 24,7 km/h (4 Bft)
28.08.2014 17:48 21,7 C 21,1 C 78 % 1013,5 hPa 0,0 l/m 0 min 0 min 0,0 UV-I 199 W/m 28,2 km/h (4 Bft)
28.08.2014 17:50 21,8 C 21,1 C 79 % 1013,5 hPa 0,0 l/m 2 min 0 min 0,0 UV-I 204 W/m 21,3 km/h (4 Bft)
28.08.2014 17:52 21,8 C 21,1 C 79 % 1013,5 hPa 0,0 l/m 2 min 0 min 0,0 UV-I 212 W/m 21,3 km/h (4 Bft)
28.08.2014 17:54 21,9 C 21,1 C 79 % 1013,5 hPa 0,0 l/m 2 min 0 min 0,0 UV-I 221 W/m 21,3 km/h (4 Bft)
28.08.2014 17:56 21,9 C 21,1 C 79 % 1013,4 hPa 0,0 l/m 2 min 0 min 0,0 UV-I 225 W/m 28,2 km/h (4 Bft)
28.08.2014 17:58 21,9 C 21,7 C 79 % 1013,4 hPa 0,0 l/m 2 min 0 min 0,0 UV-I 231 W/m 24,7 km/h (4 Bft)
28.08.2014 18:00 22,0 C 21,7 C 79 % 1013,4 hPa 0,0 l/m 2 min 0 min 0,0 UV-I 247 W/m 17,7 km/h (3 Bft)
28.08.2014 18:02 22,2 C 21,7 C 79 % 1013,4 hPa 0,0 l/m 2 min 0 min 0,0 UV-I 322 W/m 24,7 km/h (4 Bft)
28.08.2014 18:06 22,5 C 22,2 C 78 % 1013,3 hPa 0,0 l/m 2 min 0 min 0,0 UV-I 408 W/m 28,2 km/h (4 Bft)
28.08.2014 18:08 22,6 C 22,2 C 77 % 1013,4 hPa 0,0 l/m 2 min 0 min 0,0 UV-I 383 W/m 3,5 km/h (1 Bft)
28.08.2014 18:10 22,8 C 21,7 C 77 % 1013,4 hPa 0,0 l/m 2 min 0 min 0,0 UV-I 271 W/m 31,7 km/h (5 Bft)
28.08.2014 18:12 22,8 C 21,7 C 77 % 1013,3 hPa 0,0 l/m 2 min 0 min 0,0 UV-I 221 W/m 21,3 km/h (4 Bft)
28.08.2014 18:14 22,7 C 21,7 C 77 % 1013,4 hPa 0,0 l/m 2 min 0 min 0,0 UV-I 174 W/m 24,7 km/h (4 Bft)
28.08.2014 18:16 22,6 C 21,7 C 76 % 1013,3 hPa 0,0 l/m 2 min 0 min 0,0 UV-I 171 W/m 28,2 km/h (4 Bft)
28.08.2014 18:18 22,4 C 21,1 C 76 % 1013,2 hPa 0,0 l/m 2 min 0 min 0,0 UV-I 167 W/m 24,7 km/h (4 Bft)
28.08.2014 18:20 22,3 C 21,1 C 76 % 1013,2 hPa 0,0 l/m 2 min 0 min 0,0 UV-I 161 W/m 21,3 km/h (4 Bft)
28.08.2014 18:22 22,3 C 21,1 C 77 % 1013,2 hPa 0,0 l/m 2 min 0 min 0,0 UV-I 159 W/m 24,7 km/h (4 Bft)
28.08.2014 18:24 22,2 C 21,1 C 78 % 1013,1 hPa 0,0 l/m 2 min 0 min 0,0 UV-I 169 W/m 28,2 km/h (4 Bft)
28.08.2014 18:26 22,2 C 21,1 C 78 % 1013,0 hPa 0,0 l/m 2 min 0 min 0,0 UV-I 157 W/m 17,7 km/h (3 Bft)
28.08.2014 18:28 22,2 C 21,1 C 78 % 1013,1 hPa 0,0 l/m 2 min 0 min 0,0 UV-I 172 W/m 31,7 km/h (5 Bft)
28.08.2014 18:30 22,1 C 21,1 C 78 % 1013,0 hPa 0,0 l/m 2 min 0 min 0,0 UV-I 162 W/m 21,3 km/h (4 Bft)
28.08.2014 18:32 22,1 C 20,6 C 77 % 1013,1 hPa 0,0 l/m 0 min 0 min 0,0 UV-I 121 W/m 31,7 km/h (5 Bft)
28.08.2014 18:34 22,1 C 20,6 C 78 % 1013,1 hPa 0,0 l/m 0 min 0 min 0,0 UV-I 120 W/m 21,3 km/h (4 Bft)
28.08.2014 18:36 22,0 C 20,6 C 78 % 1013,1 hPa 0,0 l/m 2 min 0 min 0,0 UV-I 176 W/m 31,7 km/h (5 Bft)
28.08.2014 18:38 22,0 C 20,6 C 78 % 1013,1 hPa 0,0 l/m 2 min 0 min 0,0 UV-I 195 W/m 28,2 km/h (4 Bft)
28.08.2014 18:40 22,0 C 20,6 C 78 % 1013,0 hPa 0,0 l/m 2 min 0 min 0,0 UV-I 170 W/m 31,7 km/h (5 Bft)
28.08.2014 18:42 22,0 C 20,6 C 78 % 1013,0 hPa 0,0 l/m 2 min 0 min 0,0 UV-I 161 W/m 42,4 km/h (6 Bft)
28.08.2014 18:44 22,0 C 21,1 C 78 % 1013,0 hPa 0,0 l/m 2 min 0 min 0,0 UV-I 221 W/m 21,3 km/h (4 Bft)
28.08.2014 18:46 22,1 C 21,1 C 78 % 1013,1 hPa 0,0 l/m 2 min 0 min 0,0 UV-I 202 W/m 42,4 km/h (6 Bft)
28.08.2014 18:48 22,1 C 21,1 C 78 % 1013,0 hPa 0,0 l/m 2 min 0 min 0,0 UV-I 163 W/m 28,2 km/h (4 Bft)
28.08.2014 18:50 22,2 C 21,1 C 79 % 1013,0 hPa 0,0 l/m 2 min 0 min 0,0 UV-I 203 W/m 21,3 km/h (4 Bft)
28.08.2014 18:52 22,2 C 21,1 C 78 % 1013,0 hPa 0,0 l/m 2 min 0 min 0,0 UV-I 192 W/m 24,7 km/h (4 Bft)
28.08.2014 18:54 22,2 C 20,6 C 78 % 1012,9 hPa 0,0 l/m 2 min 0 min 0,0 UV-I 165 W/m 28,2 km/h (4 Bft)
28.08.2014 18:56 22,2 C 20,6 C 78 % 1012,9 hPa 0,0 l/m 2 min 0 min 0,0 UV-I 126 W/m 35,4 km/h (5 Bft)
28.08.2014 18:58 22,1 C 20,6 C 77 % 1012,9 hPa 0,0 l/m 0 min 0 min 0,0 UV-I 106 W/m 35,4 km/h (5 Bft)
28.08.2014 19:00 22,0 C 20,6 C 78 % 1013,0 hPa 0,0 l/m 0 min 0 min 0,0 UV-I 98 W/m 31,7 km/h (5 Bft)
28.08.2014 19:02 22,0 C 20,0 C 78 % 1012,9 hPa 0,0 l/m 2 min 0 min 0,0 UV-I 108 W/m 31,7 km/h (5 Bft)
28.08.2014 19:04 21,9 C 20,0 C 78 % 1013,0 hPa 0,0 l/m 0 min 0 min 0,0 UV-I 85 W/m 21,3 km/h (4 Bft)
28.08.2014 19:06 21,9 C 20,0 C 78 % 1013,0 hPa 0,0 l/m 0 min 0 min 0,0 UV-I 80 W/m 31,7 km/h (5 Bft)
28.08.2014 19:08 21,8 C 20,0 C 78 % 1013,0 hPa 0,0 l/m 0 min 0 min 0,0 UV-I 76 W/m 28,2 km/h (4 Bft)
28.08.2014 19:10 21,7 C 20,0 C 79 % 1013,0 hPa 0,0 l/m 0 min 0 min 0,0 UV-I 67 W/m 24,7 km/h (4 Bft)
28.08.2014 19:12 21,7 C 20,0 C 79 % 1013,0 hPa 0,0 l/m 0 min 0 min 0,0 UV-I 61 W/m 28,2 km/h (4 Bft)
28.08.2014 19:14 21,7 C 20,0 C 79 % 1013,0 hPa 0,0 l/m 0 min 0 min 0,0 UV-I 63 W/m 17,7 km/h (3 Bft)
28.08.2014 19:16 21,7 C 20,0 C 79 % 1013,1 hPa 0,0 l/m 0 min 0 min 0,0 UV-I 63 W/m 21,3 km/h (4 Bft)
28.08.2014 19:18 21,6 C 20,0 C 79 % 1013,1 hPa 0,0 l/m 0 min 0 min 0,0 UV-I 63 W/m 28,2 km/h (4 Bft)
28.08.2014 19:20 21,6 C 20,0 C 80 % 1013,0 hPa 0,0 l/m 0 min 0 min 0,0 UV-I 62 W/m 38,9 km/h (6 Bft)
28.08.2014 19:22 21,5 C 20,0 C 80 % 1013,0 hPa 0,0 l/m 0 min 0 min 0,0 UV-I 58 W/m 28,2 km/h (4 Bft)
28.08.2014 19:24 21,5 C 20,0 C 80 % 1013,0 hPa 0,0 l/m 0 min 0 min 0,0 UV-I 54 W/m 21,3 km/h (4 Bft)
28.08.2014 19:26 21,4 C 19,4 C 80 % 1013,0 hPa 0,0 l/m 0 min 0 min 0,0 UV-I 46 W/m 31,7 km/h (5 Bft)
28.08.2014 19:28 21,4 C 19,4 C 80 % 1012,9 hPa 0,0 l/m 0 min 0 min 0,0 UV-I 38 W/m 24,7 km/h (4 Bft)
28.08.2014 19:30 21,4 C 19,4 C 80 % 1012,9 hPa 0,0 l/m 0 min 0 min 0,0 UV-I 33 W/m 21,3 km/h (4 Bft)
28.08.2014 19:32 21,3 C 19,4 C 80 % 1012,8 hPa 0,0 l/m 0 min 0 min 0,0 UV-I 32 W/m 17,7 km/h (3 Bft)
28.08.2014 19:34 21,3 C 19,4 C 80 % 1012,8 hPa 0,0 l/m 0 min 0 min 0,0 UV-I 34 W/m 24,7 km/h (4 Bft)
28.08.2014 19:36 21,3 C 19,4 C 80 % 1012,8 hPa 0,0 l/m 0 min 0 min 0,0 UV-I 35 W/m 21,3 km/h (4 Bft)
28.08.2014 19:38 21,3 C 19,4 C 81 % 1012,9 hPa 0,0 l/m 0 min 0 min 0,0 UV-I 34 W/m 21,3 km/h (4 Bft)
28.08.2014 19:40 21,3 C 19,4 C 81 % 1012,8 hPa 0,0 l/m 0 min 0 min 0,0 UV-I 32 W/m 14,2 km/h (3 Bft)
28.08.2014 19:42 21,2 C 19,4 C 81 % 1012,8 hPa 0,0 l/m 0 min 0 min 0,0 UV-I 31 W/m 21,3 km/h (4 Bft)
28.08.2014 19:44 21,2 C 19,4 C 81 % 1012,8 hPa 0,0 l/m 0 min 0 min 0,0 UV-I 30 W/m 17,7 km/h (3 Bft)
28.08.2014 19:46 21,2 C 19,4 C 81 % 1012,8 hPa 0,0 l/m 0 min 0 min 0,0 UV-I 27 W/m 17,7 km/h (3 Bft)
28.08.2014 19:48 21,2 C 19,4 C 81 % 1012,8 hPa 0,0 l/m 0 min 0 min 0,0 UV-I 23 W/m 17,7 km/h (3 Bft)
28.08.2014 19:50 21,1 C 19,4 C 81 % 1012,8 hPa 0,0 l/m 0 min 0 min 0,0 UV-I 21 W/m 21,3 km/h (4 Bft)
28.08.2014 19:52 21,1 C 19,4 C 81 % 1012,8 hPa 0,0 l/m 0 min 0 min 0,0 UV-I 20 W/m 21,3 km/h (4 Bft)
28.08.2014 19:54 21,1 C 19,4 C 81 % 1012,8 hPa 0,0 l/m 0 min 0 min 0,0 UV-I 19 W/m 24,7 km/h (4 Bft)
28.08.2014 19:56 21,0 C 19,4 C 82 % 1012,7 hPa 0,0 l/m 0 min 0 min 0,0 UV-I 20 W/m 24,7 km/h (4 Bft)
28.08.2014 19:58 21,0 C 18,9 C 82 % 1012,8 hPa 0,0 l/m 0 min 0 min 0,0 UV-I 23 W/m 21,3 km/h (4 Bft)
28.08.2014 20:00 21,0 C 18,9 C 82 % 1012,8 hPa 0,0 l/m 0 min 0 min 0,0 UV-I 19 W/m 24,7 km/h (4 Bft)
28.08.2014 20:02 20,9 C 18,9 C 82 % 1012,8 hPa 0,0 l/m 0 min 0 min 0,0 UV-I 16 W/m 21,3 km/h (4 Bft)
28.08.2014 20:04 20,9 C 18,9 C 82 % 1012,8 hPa 0,0 l/m 0 min 0 min 0,0 UV-I 13 W/m 21,3 km/h (4 Bft)
28.08.2014 20:06 20,9 C 18,9 C 82 % 1012,8 hPa 0,0 l/m 0 min 0 min 0,0 UV-I 12 W/m 17,7 km/h (3 Bft)
28.08.2014 20:08 20,8 C 18,9 C 83 % 1012,8 hPa 0,0 l/m 0 min 0 min 0,0 UV-I 10 W/m 21,3 km/h (4 Bft)
28.08.2014 20:10 20,8 C 18,9 C 82 % 1012,8 hPa 0,0 l/m 0 min 0 min 0,0 UV-I 9 W/m 17,7 km/h (3 Bft)
28.08.2014 20:12 20,8 C 18,9 C 83 % 1012,8 hPa 0,0 l/m 0 min 0 min 0,0 UV-I 8 W/m 14,2 km/h (3 Bft)
28.08.2014 20:14 20,8 C 18,9 C 83 % 1012,8 hPa 0,0 l/m 0 min 0 min 0,0 UV-I 6 W/m 14,2 km/h (3 Bft)
28.08.2014 20:16 20,7 C 18,9 C 83 % 1012,8 hPa 0,0 l/m 0 min 0 min 0,0 UV-I 5 W/m 14,2 km/h (3 Bft)
28.08.2014 20:18 20,7 C 18,9 C 83 % 1012,8 hPa 0,0 l/m 0 min 0 min 0,0 UV-I 5 W/m 14,2 km/h (3 Bft)
28.08.2014 20:20 20,7 C 18,9 C 83 % 1012,8 hPa 0,0 l/m 0 min 0 min 0,0 UV-I 3 W/m 17,7 km/h (3 Bft)
28.08.2014 20:22 20,7 C 18,9 C 83 % 1012,8 hPa 0,0 l/m 0 min 0 min 0,0 UV-I 0 W/m 14,2 km/h (3 Bft)
28.08.2014 20:24 20,7 C 18,9 C 83 % 1012,7 hPa 0,0 l/m 0 min 0 min 0,0 UV-I 0 W/m 10,7 km/h (2 Bft)
28.08.2014 20:26 20,7 C 18,9 C 83 % 1012,7 hPa 0,0 l/m 0 min 0 min 0,0 UV-I 0 W/m 10,7 km/h (2 Bft)
28.08.2014 20:28 20,6 C 18,9 C 83 % 1012,8 hPa 0,0 l/m 0 min 0 min 0,0 UV-I 0 W/m 0,0 km/h (0 Bft)
28.08.2014 20:30 20,6 C 18,3 C 84 % 1012,9 hPa 0,0 l/m 0 min 0 min 0,0 UV-I 0 W/m 0,0 km/h (0 Bft)
28.08.2014 20:32 20,6 C 18,3 C 84 % 1012,9 hPa 0,0 l/m 0 min 0 min 0,0 UV-I 0 W/m 0,0 km/h (0 Bft)
28.08.2014 20:34 20,6 C 18,3 C 84 % 1012,9 hPa 0,0 l/m 0 min 0 min 0,0 UV-I 0 W/m 0,0 km/h (0 Bft)
28.08.2014 20:36 20,5 C 18,3 C 84 % 1012,9 hPa 0,0 l/m 0 min 0 min 0,0 UV-I 0 W/m 3,5 km/h (1 Bft)
28.08.2014 20:38 20,4 C 18,3 C 84 % 1012,9 hPa 0,0 l/m 0 min 0 min 0,0 UV-I 0 W/m 14,2 km/h (3 Bft)
28.08.2014 20:40 20,4 C 18,3 C 84 % 1012,9 hPa 0,0 l/m 0 min 0 min 0,0 UV-I 0 W/m 0,0 km/h (0 Bft)
28.08.2014 20:42 20,4 C 18,3 C 85 % 1012,9 hPa 0,0 l/m 0 min 0 min 0,0 UV-I 0 W/m 14,2 km/h (3 Bft)
28.08.2014 20:44 20,3 C 18,3 C 85 % 1012,9 hPa 0,0 l/m 0 min 0 min 0,0 UV-I 0 W/m 14,2 km/h (3 Bft)
28.08.2014 20:46 20,3 C 18,3 C 85 % 1012,9 hPa 0,0 l/m 0 min 0 min 0,0 UV-I 0 W/m 7,1 km/h (2 Bft)
28.08.2014 20:48 20,3 C 18,3 C 85 % 1012,8 hPa 0,0 l/m 0 min 0 min 0,0 UV-I 0 W/m 0,0 km/h (0 Bft)
28.08.2014 20:50 20,3 C 18,3 C 85 % 1012,9 hPa 0,0 l/m 0 min 0 min 0,0 UV-I 0 W/m 14,2 km/h (3 Bft)
28.08.2014 20:52 20,3 C 18,3 C 85 % 1013,0 hPa 0,0 l/m 0 min 0 min 0,0 UV-I 0 W/m 0,0 km/h (0 Bft)
28.08.2014 20:54 20,2 C 18,3 C 85 % 1013,0 hPa 0,0 l/m 0 min 0 min 0,0 UV-I 0 W/m 17,7 km/h (3 Bft)
28.08.2014 20:56 20,2 C 18,3 C 85 % 1013,0 hPa 0,0 l/m 0 min 0 min 0,0 UV-I 0 W/m 7,1 km/h (2 Bft)
28.08.2014 20:58 20,2 C 18,3 C 85 % 1013,1 hPa 0,0 l/m 0 min 0 min 0,0 UV-I 0 W/m 14,2 km/h (3 Bft)
28.08.2014 21:00 20,1 C 18,3 C 86 % 1013,1 hPa 0,0 l/m 0 min 0 min 0,0 UV-I 0 W/m 0,0 km/h (0 Bft)
28.08.2014 21:02 20,1 C 18,3 C 86 % 1013,1 hPa 0,0 l/m 0 min 0 min 0,0 UV-I 0 W/m 7,1 km/h (2 Bft)
28.08.2014 21:04 20,1 C 18,3 C 86 % 1013,0 hPa 0,0 l/m 0 min 0 min 0,0 UV-I 0 W/m 0,0 km/h (0 Bft)
28.08.2014 21:06 20,1 C 18,3 C 86 % 1013,0 hPa 0,0 l/m 0 min 0 min 0,0 UV-I 0 W/m 3,5 km/h (1 Bft)
28.08.2014 21:08 20,1 C 18,3 C 86 % 1013,0 hPa 0,0 l/m 0 min 0 min 0,0 UV-I 0 W/m 3,5 km/h (1 Bft)
28.08.2014 21:10 20,1 C 18,3 C 86 % 1013,0 hPa 0,0 l/m 0 min 0 min 0,0 UV-I 0 W/m 10,7 km/h (2 Bft)
28.08.2014 21:12 20,0 C 18,3 C 86 % 1013,1 hPa 0,0 l/m 0 min 0 min 0,0 UV-I 0 W/m 14,2 km/h (3 Bft)
28.08.2014 21:14 20,0 C 18,3 C 86 % 1013,1 hPa 0,0 l/m 0 min 0 min 0,0 UV-I 0 W/m 14,2 km/h (3 Bft)
28.08.2014 21:16 20,0 C 18,3 C 86 % 1013,1 hPa 0,0 l/m 0 min 0 min 0,0 UV-I 0 W/m 7,1 km/h (2 Bft)
28.08.2014 21:18 19,9 C 18,3 C 86 % 1013,1 hPa 0,0 l/m 0 min 0 min 0,0 UV-I 0 W/m 14,2 km/h (3 Bft)
28.08.2014 21:20 19,9 C 18,3 C 86 % 1013,1 hPa 0,0 l/m 0 min 0 min 0,0 UV-I 0 W/m 7,1 km/h (2 Bft)
28.08.2014 21:22 19,9 C 18,3 C 86 % 1013,1 hPa 0,0 l/m 0 min 0 min 0,0 UV-I 0 W/m 14,2 km/h (3 Bft)
28.08.2014 21:24 19,9 C 18,3 C 86 % 1013,2 hPa 0,0 l/m 0 min 0 min 0,0 UV-I 0 W/m 17,7 km/h (3 Bft)
28.08.2014 21:26 19,9 C 18,3 C 86 % 1013,2 hPa 0,0 l/m 0 min 0 min 0,0 UV-I 0 W/m 3,5 km/h (1 Bft)
28.08.2014 21:28 19,8 C 18,3 C 87 % 1013,2 hPa 0,0 l/m 0 min 0 min 0,0 UV-I 0 W/m 17,7 km/h (3 Bft)
28.08.2014 21:30 19,8 C 18,3 C 87 % 1013,2 hPa 0,0 l/m 0 min 0 min 0,0 UV-I 0 W/m 3,5 km/h (1 Bft)
28.08.2014 21:32 19,8 C 18,3 C 87 % 1013,3 hPa 0,0 l/m 0 min 0 min 0,0 UV-I 0 W/m 0,0 km/h (0 Bft)
28.08.2014 21:34 19,8 C 17,8 C 87 % 1013,3 hPa 0,0 l/m 0 min 0 min 0,0 UV-I 0 W/m 17,7 km/h (3 Bft)
28.08.2014 21:36 19,8 C 18,3 C 87 % 1013,3 hPa 0,0 l/m 0 min 0 min 0,0 UV-I 0 W/m 21,3 km/h (4 Bft)
28.08.2014 21:38 19,8 C 18,3 C 87 % 1013,3 hPa 0,0 l/m 0 min 0 min 0,0 UV-I 0 W/m 17,7 km/h (3 Bft)
28.08.2014 21:40 19,8 C 17,8 C 87 % 1013,3 hPa 0,0 l/m 0 min 0 min 0,0 UV-I 0 W/m 21,3 km/h (4 Bft)
28.08.2014 21:42 19,8 C 17,8 C 87 % 1013,3 hPa 0,0 l/m 0 min 2 min 0,0 UV-I 0 W/m 14,2 km/h (3 Bft)
28.08.2014 21:44 19,7 C 17,8 C 87 % 1013,3 hPa 0,0 l/m 0 min 0 min 0,0 UV-I 0 W/m 7,1 km/h (2 Bft)
28.08.2014 21:46 19,7 C 17,8 C 87 % 1013,3 hPa 0,0 l/m 0 min 2 min 0,0 UV-I 0 W/m 14,2 km/h (3 Bft)
28.08.2014 21:48 19,7 C 17,2 C 88 % 1013,4 hPa 0,0 l/m 0 min 2 min 0,0 UV-I 0 W/m 14,2 km/h (3 Bft)
28.08.2014 21:50 19,6 C 17,2 C 88 % 1013,3 hPa 0,0 l/m 0 min 2 min 0,0 UV-I 0 W/m 14,2 km/h (3 Bft)
28.08.2014 21:52 19,6 C 16,7 C 89 % 1013,3 hPa 0,0 l/m 0 min 2 min 0,0 UV-I 0 W/m 7,1 km/h (2 Bft)
28.08.2014 21:54 19,4 C 16,7 C 89 % 1013,3 hPa 0,0 l/m 0 min 2 min 0,0 UV-I 0 W/m 3,5 km/h (1 Bft)
28.08.2014 21:56 19,4 C 16,7 C 89 % 1013,3 hPa 0,2 l/m 0 min 2 min 0,0 UV-I 0 W/m 3,5 km/h (1 Bft)
28.08.2014 21:58 19,3 C 16,7 C 90 % 1013,3 hPa 0,0 l/m 0 min 2 min 0,0 UV-I 0 W/m 3,5 km/h (1 Bft)
28.08.2014 22:00 19,3 C 16,7 C 90 % 1013,1 hPa 0,0 l/m 0 min 2 min 0,0 UV-I 0 W/m 3,5 km/h (1 Bft)
28.08.2014 22:02 19,2 C 16,7 C 91 % 1013,2 hPa 0,2 l/m 0 min 2 min 0,0 UV-I 0 W/m 0,0 km/h (0 Bft)
28.08.2014 22:04 19,2 C 16,7 C 91 % 1013,1 hPa 0,0 l/m 0 min 2 min 0,0 UV-I 0 W/m 10,7 km/h (2 Bft)
28.08.2014 22:06 19,1 C 16,7 C 91 % 1013,0 hPa 0,0 l/m 0 min 2 min 0,0 UV-I 0 W/m 14,2 km/h (3 Bft)
28.08.2014 22:08 19,0 C 16,7 C 92 % 1013,0 hPa 0,0 l/m 0 min 0 min 0,0 UV-I 0 W/m 17,7 km/h (3 Bft)
28.08.2014 22:10 19,0 C 16,7 C 92 % 1013,1 hPa 0,0 l/m 0 min 0 min 0,0 UV-I 0 W/m 10,7 km/h (2 Bft)
28.08.2014 22:12 18,9 C 16,7 C 92 % 1013,2 hPa 0,0 l/m 0 min 0 min 0,0 UV-I 0 W/m 7,1 km/h (2 Bft)
28.08.2014 22:14 18,9 C 16,7 C 92 % 1013,2 hPa 0,0 l/m 0 min 0 min 0,0 UV-I 0 W/m 0,0 km/h (0 Bft)
28.08.2014 22:16 18,8 C 16,7 C 93 % 1013,3 hPa 0,0 l/m 0 min 2 min 0,0 UV-I 0 W/m 0,0 km/h (0 Bft)
28.08.2014 22:18 18,8 C 16,7 C 93 % 1013,3 hPa 0,0 l/m 0 min 2 min 0,0 UV-I 0 W/m 0,0 km/h (0 Bft)
28.08.2014 22:20 18,8 C 16,7 C 93 % 1013,2 hPa 0,0 l/m 0 min 2 min 0,0 UV-I 0 W/m 0,0 km/h (0 Bft)
28.08.2014 22:22 18,7 C 16,7 C 94 % 1013,3 hPa 0,0 l/m 0 min 2 min 0,0 UV-I 0 W/m 0,0 km/h (0 Bft)
28.08.2014 22:24 18,7 C 16,7 C 94 % 1013,3 hPa 0,0 l/m 0 min 2 min 0,0 UV-I 0 W/m 0,0 km/h (0 Bft)
28.08.2014 22:26 18,7 C 16,7 C 94 % 1013,2 hPa 0,0 l/m 0 min 2 min 0,0 UV-I 0 W/m 0,0 km/h (0 Bft)
28.08.2014 22:28 18,6 C 16,7 C 94 % 1013,2 hPa 0,0 l/m 0 min 2 min 0,0 UV-I 0 W/m 0,0 km/h (0 Bft)
28.08.2014 22:30 18,6 C 16,7 C 94 % 1013,2 hPa 0,0 l/m 0 min 2 min 0,0 UV-I 0 W/m 0,0 km/h (0 Bft)
28.08.2014 22:32 18,6 C 16,7 C 94 % 1013,1 hPa 0,0 l/m 0 min 0 min 0,0 UV-I 0 W/m 3,5 km/h (1 Bft)
28.08.2014 22:34 18,6 C 16,7 C 95 % 1013,1 hPa 0,0 l/m 0 min 0 min 0,0 UV-I 0 W/m 0,0 km/h (0 Bft)
28.08.2014 22:36 18,6 C 16,7 C 95 % 1013,1 hPa 0,0 l/m 0 min 0 min 0,0 UV-I 0 W/m 0,0 km/h (0 Bft)
28.08.2014 22:38 18,6 C 16,7 C 95 % 1013,1 hPa 0,0 l/m 0 min 0 min 0,0 UV-I 0 W/m 0,0 km/h (0 Bft)
28.08.2014 22:40 18,6 C 16,7 C 95 % 1013,0 hPa 0,0 l/m 0 min 0 min 0,0 UV-I 0 W/m 10,7 km/h (2 Bft)
28.08.2014 22:42 18,6 C 16,7 C 95 % 1013,0 hPa 0,0 l/m 0 min 0 min 0,0 UV-I 0 W/m 7,1 km/h (2 Bft)
28.08.2014 22:44 18,6 C 16,7 C 95 % 1013,1 hPa 0,0 l/m 0 min 0 min 0,0 UV-I 0 W/m 0,0 km/h (0 Bft)
28.08.2014 22:46 18,5 C 16,7 C 95 % 1013,0 hPa 0,0 l/m 0 min 0 min 0,0 UV-I 0 W/m 0,0 km/h (0 Bft)
28.08.2014 22:48 18,5 C 16,7 C 95 % 1013,0 hPa 0,0 l/m 0 min 0 min 0,0 UV-I 0 W/m 0,0 km/h (0 Bft)
28.08.2014 22:50 18,5 C 16,7 C 95 % 1013,0 hPa 0,0 l/m 0 min 0 min 0,0 UV-I 0 W/m 7,1 km/h (2 Bft)
28.08.2014 22:52 18,4 C 16,7 C 95 % 1013,0 hPa 0,0 l/m 0 min 2 min 0,0 UV-I 0 W/m 3,5 km/h (1 Bft)
28.08.2014 22:54 18,4 C 16,7 C 96 % 1013,0 hPa 0,0 l/m 0 min 0 min 0,0 UV-I 0 W/m 7,1 km/h (2 Bft)
28.08.2014 22:56 18,4 C 16,7 C 96 % 1013,1 hPa 0,0 l/m 0 min 0 min 0,0 UV-I 0 W/m 7,1 km/h (2 Bft)
28.08.2014 22:57 18,4 C 16,7 C 96 % 1013,1 hPa 0,0 l/m 0 min 0 min 0,0 UV-I 0 W/m 7,1 km/h (2 Bft)
28.08.2014 22:58 18,4 C 16,7 C 96 % 1013,1 hPa 0,0 l/m 0 min 0 min 0,0 UV-I 0 W/m 3,5 km/h (1 Bft)
28.08.2014 22:59 18,4 C 16,7 C 96 % 1013,1 hPa 0,0 l/m 0 min 0 min 0,0 UV-I 0 W/m 0,0 km/h (0 Bft)
28.08.2014 23:00 18,4 C 16,7 C 96 % 1013,1 hPa 0,0 l/m 0 min 1 min 0,0 UV-I 0 W/m 0,0 km/h (0 Bft)
28.08.2014 23:01 18,4 C 16,7 C 96 % 1013,2 hPa 0,0 l/m 0 min 1 min 0,0 UV-I 0 W/m 0,0 km/h (0 Bft)
28.08.2014 23:02 18,3 C 16,7 C 96 % 1013,2 hPa 0,0 l/m 0 min 1 min 0,0 UV-I 0 W/m 0,0 km/h (0 Bft)
28.08.2014 23:03 18,3 C 16,7 C 96 % 1013,2 hPa 0,0 l/m 0 min 1 min 0,0 UV-I 0 W/m 0,0 km/h (0 Bft)
28.08.2014 23:04 18,3 C 16,7 C 96 % 1013,2 hPa 0,2 l/m 0 min 1 min 0,0 UV-I 0 W/m 0,0 km/h (0 Bft)
28.08.2014 23:05 18,3 C 16,7 C 96 % 1013,3 hPa 0,0 l/m 0 min 1 min 0,0 UV-I 0 W/m 3,5 km/h (1 Bft)
28.08.2014 23:06 18,3 C 16,7 C 96 % 1013,3 hPa 0,0 l/m 0 min 1 min 0,0 UV-I 0 W/m 17,7 km/h (3 Bft)
28.08.2014 23:07 18,3 C 16,7 C 96 % 1013,2 hPa 0,0 l/m 0 min 1 min 0,0 UV-I 0 W/m 10,7 km/h (2 Bft)
28.08.2014 23:08 18,3 C 16,7 C 96 % 1013,3 hPa 0,0 l/m 0 min 1 min 0,0 UV-I 0 W/m 14,2 km/h (3 Bft)
28.08.2014 23:09 18,3 C 16,7 C 96 % 1013,3 hPa 0,0 l/m 0 min 1 min 0,0 UV-I 0 W/m 10,7 km/h (2 Bft)
28.08.2014 23:14 18,2 C 16,7 C 96 % 1013,2 hPa 0,0 l/m 0 min 2 min 0,0 UV-I 0 W/m 10,7 km/h (2 Bft)
28.08.2014 23:16 18,2 C 16,7 C 96 % 1013,2 hPa 0,0 l/m 0 min 0 min 0,0 UV-I 0 W/m 17,7 km/h (3 Bft)
28.08.2014 23:17 18,2 C 16,7 C 96 % 1013,2 hPa 0,0 l/m 0 min 0 min 0,0 UV-I 0 W/m 17,7 km/h (3 Bft)
28.08.2014 23:18 18,2 C 16,7 C 96 % 1013,3 hPa 0,0 l/m 0 min 0 min 0,0 UV-I 0 W/m 14,2 km/h (3 Bft)
28.08.2014 23:19 18,2 C 16,7 C 96 % 1013,3 hPa 0,0 l/m 0 min 0 min 0,0 UV-I 0 W/m 17,7 km/h (3 Bft)
28.08.2014 23:20 18,2 C 16,7 C 96 % 1013,2 hPa 0,0 l/m 0 min 0 min 0,0 UV-I 0 W/m 10,7 km/h (2 Bft)
28.08.2014 23:21 18,2 C 16,7 C 96 % 1013,3 hPa 0,0 l/m 0 min 0 min 0,0 UV-I 0 W/m 10,7 km/h (2 Bft)
28.08.2014 23:22 18,2 C 16,7 C 96 % 1013,4 hPa 0,0 l/m 0 min 0 min 0,0 UV-I 0 W/m 7,1 km/h (2 Bft)
28.08.2014 23:24 18,2 C 16,7 C 96 % 1013,3 hPa 0,0 l/m 0 min 0 min 0,0 UV-I 0 W/m 10,7 km/h (2 Bft)
28.08.2014 23:26 18,2 C 16,7 C 96 % 1013,3 hPa 0,0 l/m 0 min 0 min 0,0 UV-I 0 W/m 14,2 km/h (3 Bft)
28.08.2014 23:28 18,2 C 16,7 C 96 % 1013,3 hPa 0,0 l/m 0 min 0 min 0,0 UV-I 0 W/m 10,7 km/h (2 Bft)
28.08.2014 23:30 18,2 C 16,7 C 96 % 1013,3 hPa 0,0 l/m 0 min 0 min 0,0 UV-I 0 W/m 10,7 km/h (2 Bft)
28.08.2014 23:32 18,2 C 16,7 C 96 % 1013,4 hPa 0,0 l/m 0 min 0 min 0,0 UV-I 0 W/m 14,2 km/h (3 Bft)
28.08.2014 23:34 18,2 C 16,7 C 96 % 1013,4 hPa 0,0 l/m 0 min 2 min 0,0 UV-I 0 W/m 21,3 km/h (4 Bft)
28.08.2014 23:36 18,2 C 16,7 C 96 % 1013,4 hPa 0,0 l/m 0 min 2 min 0,0 UV-I 0 W/m 14,2 km/h (3 Bft)
28.08.2014 23:38 18,2 C 16,7 C 96 % 1013,5 hPa 0,0 l/m 0 min 2 min 0,0 UV-I 0 W/m 24,7 km/h (4 Bft)
28.08.2014 23:40 18,2 C 16,7 C 96 % 1013,4 hPa 0,2 l/m 0 min 2 min 0,0 UV-I 0 W/m 21,3 km/h (4 Bft)
28.08.2014 23:42 18,3 C 16,7 C 96 % 1013,4 hPa 0,0 l/m 0 min 2 min 0,0 UV-I 0 W/m 24,7 km/h (4 Bft)
28.08.2014 23:44 18,3 C 16,7 C 96 % 1013,4 hPa 0,0 l/m 0 min 2 min 0,0 UV-I 0 W/m 35,4 km/h (5 Bft)
28.08.2014 23:46 18,3 C 16,7 C 96 % 1013,4 hPa 0,0 l/m 0 min 2 min 0,0 UV-I 0 W/m 28,2 km/h (4 Bft)
28.08.2014 23:48 18,3 C 16,7 C 96 % 1013,5 hPa 0,0 l/m 0 min 2 min 0,0 UV-I 0 W/m 35,4 km/h (5 Bft)
28.08.2014 23:50 18,3 C 16,7 C 96 % 1013,6 hPa 0,0 l/m 0 min 0 min 0,0 UV-I 0 W/m 24,7 km/h (4 Bft)
28.08.2014 23:52 18,3 C 16,7 C 96 % 1013,6 hPa 0,0 l/m 0 min 0 min 0,0 UV-I 0 W/m 21,3 km/h (4 Bft)
28.08.2014 23:54 18,3 C 16,7 C 96 % 1013,5 hPa 0,0 l/m 0 min 0 min 0,0 UV-I 0 W/m 28,2 km/h (4 Bft)
28.08.2014 23:56 18,3 C 16,7 C 97 % 1013,6 hPa 0,0 l/m 0 min 0 min 0,0 UV-I 0 W/m 35,4 km/h (5 Bft)
28.08.2014 23:58 18,3 C 16,7 C 97 % 1013,6 hPa 0,0 l/m 0 min 0 min 0,0 UV-I 0 W/m 42,4 km/h (6 Bft)
_ Min-Zeit 06:46 06:10 12:56 19:56 - - - - - 00:00
Minimum _ 11,8 C 10,6 C 68 % 1012,7 hPa - - - - - 0,0 km/h (0 Bft)
_ Max-Zeit 14:08 12:52 07:26 00:02 21:56 06:56 21:42 12:54 12:56 13:22
Maximum _ 23,4 C 22,8 C 97 % 1016,1 hPa 0,2 l/m 2 min 2 min 4,3 UV-I 895 W/m 49,5 km/h
S (6 Bft)
Durchschnitt _ 17,9 C 16,5 C 86 % 1014,5 hPa #0,8 l/m #7:36 h #1:10 h 1,8 UV-I 280 W/m 17,6 km/h (3 Bft)
© 2014 W. Hausmann